ECMWFFLT1_prec_precacc_099.txt.gz
Total_Precipitation_Accumulation
0.05 0.06 0.07 0.08 0.08 0.07 0.12 0.08 0.10 0.06 0.07 0.09 0.07 0.08 0.07 0.07 0.07 0.06 0.06 0.07 0.07 0.08 0.13 0.15 0.15 0.15 0.14 0.16 0.21 0.21 0.18 0.18 0.16 0.17 0.18 0.18 0.20 0.23 0.23 0.23 0.37 0.34 0.21 0.07 0.02 0.01 0.01 0.00 0.02 0.03 0.06 0.09 0.15 0.16 0.15 0.06 0.04 0.06 0.04 0.07 0.09 0.13 0.10
0.07 0.07 0.08 0.09 0.09 0.08 0.08 0.13 0.10 0.07 0.08 0.07 0.06 0.07 0.08 0.09 0.12 0.07 0.08 0.06 0.06 0.06 0.07 0.12 0.14 0.11 0.10 0.12 0.19 0.23 0.23 0.22 0.20 0.23 0.22 0.19 0.19 0.21 0.21 0.18 0.23 0.28 0.24 0.15 0.05 0.02 0.01 0.01 0.01 0.03 0.04 0.07 0.09 0.13 0.17 0.15 0.10 0.07 0.08 0.07 0.11 0.14 0.10
0.11 0.11 0.11 0.11 0.09 0.09 0.11 0.12 0.13 0.10 0.13 0.14 0.13 0.10 0.08 0.07 0.07 0.06 0.06 0.06 0.05 0.05 0.06 0.08 0.11 0.12 0.12 0.12 0.21 0.22 0.24 0.24 0.25 0.24 0.22 0.22 0.16 0.14 0.12 0.14 0.19 0.24 0.22 0.17 0.12 0.05 0.03 0.02 0.02 0.03 0.04 0.05 0.09 0.11 0.09 0.15 0.18 0.15 0.14 0.11 0.11 0.11 0.09
0.09 0.10 0.10 0.11 0.11 0.15 0.10 0.11 0.09 0.11 0.14 0.15 0.12 0.14 0.16 0.12 0.09 0.08 0.09 0.10 0.07 0.06 0.06 0.07 0.10 0.11 0.12 0.17 0.19 0.20 0.21 0.23 0.24 0.24 0.24 0.22 0.19 0.18 0.13 0.09 0.10 0.15 0.19 0.17 0.16 0.09 0.06 0.03 0.03 0.03 0.04 0.05 0.06 0.10 0.14 0.15 0.22 0.23 0.21 0.17 0.17 0.09 0.10
0.09 0.10 0.11 0.11 0.09 0.08 0.07 0.08 0.07 0.08 0.08 0.08 0.09 0.11 0.12 0.12 0.12 0.12 0.12 0.11 0.11 0.12 0.11 0.10 0.08 0.08 0.09 0.11 0.17 0.19 0.22 0.23 0.25 0.27 0.26 0.24 0.18 0.18 0.15 0.13 0.13 0.15 0.17 0.26 0.20 0.14 0.08 0.04 0.04 0.04 0.05 0.05 0.08 0.10 0.15 0.18 0.21 0.23 0.27 0.25 0.21 0.16 0.11
0.12 0.13 0.11 0.10 0.10 0.09 0.12 0.09 0.09 0.09 0.11 0.08 0.07 0.07 0.08 0.09 0.09 0.10 0.11 0.12 0.13 0.12 0.13 0.13 0.12 0.11 0.12 0.13 0.15 0.16 0.14 0.20 0.26 0.29 0.25 0.24 0.26 0.26 0.21 0.19 0.18 0.17 0.20 0.22 0.21 0.17 0.11 0.08 0.06 0.07 0.07 0.07 0.08 0.10 0.13 0.21 0.23 0.22 0.27 0.29 0.29 0.28 0.21
0.14 0.14 0.13 0.13 0.12 0.12 0.11 0.11 0.10 0.09 0.09 0.08 0.09 0.09 0.09 0.09 0.09 0.08 0.09 0.09 0.10 0.10 0.11 0.12 0.13 0.13 0.12 0.13 0.13 0.14 0.14 0.15 0.15 0.23 0.26 0.27 0.28 0.26 0.29 0.35 0.36 0.30 0.23 0.22 0.22 0.24 0.13 0.10 0.13 0.08 0.11 0.07 0.06 0.08 0.09 0.13 0.20 0.26 0.24 0.26 0.27 0.27 0.24
0.17 0.16 0.15 0.16 0.15 0.14 0.12 0.13 0.12 0.11 0.10 0.09 0.09 0.09 0.11 0.10 0.12 0.13 0.12 0.10 0.09 0.09 0.10 0.11 0.12 0.13 0.12 0.12 0.11 0.12 0.11 0.12 0.15 0.19 0.24 0.22 0.24 0.28 0.37 0.40 0.39 0.37 0.35 0.35 0.33 0.27 0.22 0.17 0.11 0.09 0.07 0.10 0.12 0.15 0.15 0.12 0.13 0.19 0.21 0.25 0.28 0.26 0.25
0.21 0.20 0.21 0.17 0.17 0.18 0.15 0.16 0.14 0.12 0.13 0.13 0.12 0.14 0.17 0.16 0.17 0.16 0.16 0.15 0.14 0.13 0.12 0.11 0.11 0.11 0.14 0.11 0.10 0.10 0.11 0.12 0.14 0.18 0.21 0.21 0.24 0.30 0.36 0.39 0.39 0.41 0.43 0.42 0.38 0.35 0.24 0.20 0.15 0.13 0.11 0.12 0.14 0.16 0.15 0.12 0.11 0.16 0.17 0.18 0.20 0.23 0.27
0.22 0.24 0.33 0.22 0.20 0.19 0.21 0.19 0.16 0.14 0.15 0.19 0.26 0.31 0.31 0.31 0.29 0.27 0.25 0.24 0.21 0.18 0.15 0.14 0.12 0.11 0.09 0.10 0.11 0.12 0.13 0.15 0.18 0.18 0.20 0.24 0.26 0.29 0.37 0.41 0.45 0.44 0.40 0.41 0.46 0.38 0.30 0.31 0.22 0.14 0.11 0.10 0.09 0.07 0.06 0.07 0.08 0.09 0.09 0.10 0.17 0.19 0.24
0.30 0.29 0.29 0.28 0.28 0.31 0.27 0.25 0.20 0.17 0.24 0.40 0.53 0.49 0.48 0.43 0.36 0.30 0.28 0.25 0.23 0.20 0.16 0.14 0.13 0.12 0.11 0.11 0.12 0.13 0.16 0.19 0.19 0.25 0.28 0.25 0.23 0.29 0.36 0.43 0.47 0.43 0.38 0.41 0.39 0.37 0.31 0.26 0.20 0.12 0.12 0.11 0.09 0.07 0.07 0.09 0.09 0.09 0.10 0.14 0.18 0.24 0.22
0.38 0.31 0.29 0.29 0.29 0.31 0.28 0.29 0.23 0.26 0.41 0.50 0.64 0.78 0.64 0.58 0.48 0.38 0.32 0.27 0.24 0.20 0.18 0.16 0.15 0.14 0.13 0.13 0.12 0.12 0.13 0.15 0.19 0.24 0.25 0.28 0.34 0.40 0.50 0.54 0.47 0.47 0.45 0.37 0.40 0.40 0.33 0.33 0.23 0.12 0.10 0.09 0.11 0.12 0.11 0.12 0.13 0.15 0.17 0.18 0.18 0.16 0.17
0.35 0.34 0.34 0.34 0.38 0.32 0.30 0.29 0.25 0.32 0.49 0.56 0.77 0.90 0.91 0.75 0.58 0.44 0.33 0.28 0.24 0.22 0.20 0.18 0.20 0.18 0.17 0.14 0.12 0.15 0.15 0.16 0.17 0.19 0.24 0.28 0.31 0.34 0.50 0.59 0.67 0.55 0.46 0.49 0.46 0.43 0.35 0.24 0.22 0.27 0.16 0.09 0.10 0.17 0.20 0.17 0.19 0.21 0.22 0.21 0.19 0.15 0.13
0.40 0.39 0.43 0.43 0.43 0.40 0.38 0.35 0.32 0.38 0.63 0.80 0.93 1.06 1.09 0.79 0.67 0.52 0.41 0.33 0.28 0.24 0.22 0.21 0.23 0.24 0.22 0.17 0.17 0.18 0.18 0.18 0.18 0.18 0.19 0.22 0.27 0.30 0.31 0.45 0.51 0.52 0.45 0.42 0.48 0.53 0.45 0.28 0.33 0.24 0.23 0.39 0.30 0.28 0.30 0.28 0.26 0.27 0.28 0.28 0.25 0.18 0.17
0.45 0.46 0.48 0.49 0.56 0.52 0.50 0.42 0.40 0.57 0.82 0.87 0.99 1.03 1.31 0.95 0.87 0.71 0.53 0.41 0.35 0.32 0.29 0.25 0.23 0.22 0.21 0.18 0.18 0.18 0.18 0.19 0.19 0.19 0.20 0.20 0.20 0.20 0.19 0.20 0.19 0.25 0.39 0.44 0.35 0.33 0.31 0.26 0.23 0.21 0.19 0.20 0.28 0.41 0.43 0.36 0.32 0.28 0.29 0.32 0.31 0.33 0.30
0.38 0.38 0.39 0.37 0.40 0.45 0.44 0.34 0.39 0.63 0.83 0.90 1.08 1.24 1.17 1.09 0.82 0.65 0.56 0.46 0.40 0.35 0.31 0.27 0.27 0.28 0.25 0.21 0.19 0.18 0.37 0.26 0.23 0.27 0.28 0.25 0.20 0.17 0.15 0.15 0.14 0.19 0.22 0.19 0.29 0.31 0.27 0.23 0.18 0.27 0.29 0.33 0.36 0.34 0.34 0.38 0.41 0.43 0.48 0.53 0.55 0.44 0.31
0.27 0.29 0.33 0.33 0.34 0.36 0.32 0.30 0.34 0.50 0.76 0.82 1.01 1.40 1.47 1.24 0.85 0.65 0.53 0.43 0.38 0.35 0.33 0.30 0.28 0.28 0.29 0.25 0.22 0.18 0.40 0.45 0.49 0.41 0.39 0.38 0.31 0.24 0.21 0.18 0.12 0.26 0.40 0.58 0.65 0.73 0.51 0.42 0.38 0.39 0.47 0.51 0.50 0.38 0.36 0.38 0.49 0.49 0.40 0.46 0.47 0.35 0.23
0.30 0.29 0.30 0.33 0.33 0.33 0.35 0.31 0.30 0.42 0.60 0.72 0.94 1.07 1.04 0.99 0.91 0.66 0.53 0.46 0.39 0.37 0.37 0.31 0.33 0.30 0.29 0.28 0.23 0.29 0.44 0.61 0.62 0.75 0.55 0.40 0.37 0.34 0.29 0.21 0.14 0.12 0.15 0.37 0.70 0.85 0.84 0.93 0.77 0.69 0.69 0.84 0.85 0.77 0.53 0.56 0.60 0.40 0.27 0.34 0.34 0.33 0.21
0.30 0.29 0.29 0.30 0.31 0.33 0.37 0.36 0.32 0.36 0.57 0.78 0.98 1.03 1.01 0.96 0.89 0.78 0.65 0.59 0.54 0.45 0.37 0.31 0.28 0.33 0.37 0.31 0.28 0.46 0.59 0.91 0.77 0.72 0.54 0.34 0.34 0.37 0.32 0.21 0.15 0.14 0.17 0.18 0.22 0.30 0.37 0.43 0.58 0.52 0.52 0.42 0.52 0.60 0.70 0.50 0.43 0.39 0.39 0.39 0.33 0.30 0.30
0.25 0.26 0.28 0.31 0.37 0.38 0.38 0.37 0.36 0.39 0.52 0.77 0.80 0.96 0.87 0.73 0.71 0.74 0.69 0.65 0.58 0.60 0.53 0.41 0.36 0.31 0.35 0.59 0.72 0.56 0.82 0.92 1.29 0.77 0.72 0.53 0.46 0.39 0.27 0.15 0.12 0.15 0.17 0.19 0.21 0.20 0.19 0.25 0.29 0.35 0.45 0.46 0.42 0.36 0.42 0.62 0.44 0.44 0.45 0.42 0.35 0.28 0.26
0.27 0.31 0.35 0.34 0.35 0.38 0.38 0.38 0.37 0.32 0.45 0.61 0.64 0.76 1.02 0.77 0.68 0.61 0.61 0.64 0.66 0.56 0.49 0.45 0.40 0.37 0.33 0.42 0.60 0.67 0.75 0.88 1.10 0.99 0.70 0.65 0.55 0.32 0.19 0.20 0.25 0.27 0.23 0.27 0.23 0.22 0.21 0.22 0.26 0.35 0.40 0.44 0.40 0.39 0.37 0.47 0.35 0.38 0.32 0.40 0.44 0.37 0.30
0.35 0.34 0.28 0.25 0.29 0.33 0.34 0.33 0.32 0.36 0.40 0.41 0.58 0.77 1.01 0.84 0.71 0.59 0.65 0.70 0.55 0.43 0.38 0.35 0.36 0.37 0.38 0.40 0.53 0.68 1.00 0.95 1.04 1.16 0.85 0.70 0.63 0.59 0.56 0.33 0.30 0.29 0.33 0.30 0.29 0.27 0.26 0.27 0.28 0.29 0.32 0.39 0.40 0.36 0.48 0.39 0.32 0.27 0.24 0.22 0.24 0.29 0.31
0.35 0.30 0.28 0.27 0.31 0.32 0.31 0.30 0.30 0.40 0.34 0.34 0.51 0.68 0.84 0.87 0.84 0.81 0.64 0.58 0.49 0.36 0.31 0.29 0.32 0.33 0.36 0.44 0.75 0.92 1.05 1.09 1.30 1.13 1.10 1.13 0.98 0.85 0.74 0.71 0.67 0.54 0.46 0.40 0.33 0.30 0.34 0.30 0.26 0.29 0.27 0.25 0.33 0.31 0.25 0.27 0.26 0.27 0.27 0.28 0.22 0.18 0.18
0.34 0.26 0.27 0.30 0.31 0.31 0.29 0.29 0.34 0.35 0.30 0.32 0.37 0.54 0.77 0.82 0.83 0.75 0.59 0.53 0.42 0.36 0.35 0.33 0.31 0.30 0.41 0.64 0.64 0.71 0.90 1.12 1.09 1.10 1.22 1.36 1.22 0.84 0.80 0.79 0.78 0.70 0.59 0.49 0.40 0.37 0.31 0.28 0.20 0.21 0.20 0.21 0.17 0.26 0.30 0.28 0.27 0.25 0.26 0.25 0.21 0.17 0.16
0.26 0.28 0.29 0.29 0.31 0.34 0.33 0.33 0.34 0.30 0.30 0.31 0.34 0.40 0.56 0.63 0.71 0.61 0.58 0.53 0.43 0.39 0.37 0.36 0.45 0.50 0.54 0.58 0.62 0.64 0.64 0.78 0.76 0.78 0.98 0.89 0.88 0.92 0.89 0.95 0.82 0.63 0.51 0.55 0.53 0.41 0.29 0.20 0.18 0.17 0.17 0.17 0.19 0.22 0.32 0.36 0.34 0.31 0.25 0.26 0.24 0.23 0.17
0.30 0.27 0.26 0.29 0.29 0.33 0.36 0.39 0.33 0.28 0.30 0.34 0.35 0.37 0.45 0.55 0.48 0.50 0.46 0.51 0.45 0.36 0.33 0.34 0.38 0.37 0.37 0.42 0.50 0.60 0.71 0.92 0.68 0.61 0.59 0.72 0.84 0.79 0.87 0.90 0.78 0.59 0.53 0.47 0.34 0.29 0.27 0.23 0.19 0.21 0.24 0.19 0.22 0.28 0.32 0.37 0.39 0.42 0.35 0.31 0.33 0.32 0.29
0.32 0.31 0.33 0.35 0.34 0.37 0.37 0.39 0.31 0.29 0.32 0.40 0.45 0.45 0.47 0.51 0.47 0.50 0.42 0.41 0.48 0.44 0.37 0.35 0.38 0.37 0.38 0.39 0.44 0.53 0.62 0.57 0.48 0.52 0.70 0.60 0.55 0.75 0.84 1.07 0.74 0.54 0.49 0.39 0.31 0.26 0.20 0.19 0.26 0.25 0.33 0.36 0.33 0.33 0.30 0.30 0.31 0.37 0.36 0.32 0.30 0.28 0.26
0.47 0.49 0.54 0.57 0.50 0.50 0.43 0.36 0.31 0.32 0.42 0.53 0.54 0.56 0.51 0.48 0.47 0.53 0.54 0.40 0.40 0.42 0.38 0.38 0.39 0.44 0.44 0.55 0.59 0.59 0.59 0.56 0.53 0.45 0.40 0.42 0.49 0.56 0.63 0.73 0.72 0.67 0.65 0.49 0.47 0.48 0.37 0.37 0.35 0.37 0.36 0.34 0.32 0.26 0.24 0.27 0.32 0.32 0.39 0.43 0.38 0.42 0.37
0.85 0.75 0.78 0.66 0.64 0.70 0.59 0.47 0.48 0.48 0.52 0.55 0.54 0.57 0.55 0.56 0.53 0.50 0.47 0.37 0.37 0.40 0.42 0.41 0.43 0.44 0.44 0.43 0.44 0.46 0.47 0.44 0.40 0.37 0.37 0.44 0.48 0.45 0.47 0.48 0.62 0.68 0.58 0.46 0.49 0.56 0.53 0.54 0.51 0.42 0.34 0.34 0.35 0.28 0.24 0.26 0.31 0.34 0.34 0.42 0.49 0.50 0.41
1.00 0.97 0.93 0.76 0.56 0.60 0.70 0.65 0.56 0.53 0.66 0.61 0.64 0.71 0.59 0.54 0.58 0.55 0.44 0.37 0.37 0.38 0.39 0.36 0.34 0.35 0.35 0.34 0.32 0.34 0.34 0.33 0.33 0.33 0.34 0.37 0.42 0.40 0.41 0.43 0.47 0.51 0.47 0.43 0.51 0.48 0.52 0.48 0.46 0.39 0.37 0.35 0.34 0.32 0.26 0.25 0.31 0.36 0.39 0.43 0.53 0.52 0.46
0.86 0.89 0.73 0.67 0.73 0.64 0.46 0.45 0.42 0.45 0.61 0.63 0.72 0.71 0.62 0.62 0.67 0.57 0.47 0.40 0.39 0.37 0.33 0.32 0.28 0.31 0.30 0.28 0.28 0.29 0.29 0.29 0.30 0.29 0.29 0.31 0.34 0.34 0.37 0.40 0.42 0.46 0.46 0.45 0.47 0.51 0.54 0.49 0.46 0.41 0.34 0.32 0.28 0.28 0.32 0.37 0.39 0.34 0.40 0.42 0.41 0.42 0.40
0.70 0.77 0.83 0.66 0.72 0.83 0.61 0.51 0.49 0.47 0.62 0.68 0.74 0.70 0.63 0.64 0.72 0.67 0.53 0.39 0.33 0.31 0.29 0.28 0.26 0.28 0.28 0.26 0.25 0.25 0.25 0.28 0.31 0.32 0.32 0.30 0.26 0.25 0.25 0.29 0.36 0.41 0.43 0.45 0.46 0.46 0.50 0.53 0.52 0.47 0.39 0.32 0.28 0.26 0.28 0.35 0.44 0.47 0.56 0.51 0.44 0.38 0.35
0.50 0.55 0.64 0.65 0.79 0.85 0.78 0.61 0.56 0.56 0.61 0.64 0.74 0.71 0.61 0.61 0.64 0.59 0.53 0.47 0.35 0.29 0.30 0.28 0.26 0.26 0.27 0.26 0.25 0.26 0.27 0.30 0.33 0.28 0.27 0.27 0.27 0.25 0.23 0.23 0.24 0.30 0.37 0.40 0.42 0.43 0.45 0.56 0.48 0.51 0.48 0.45 0.37 0.33 0.30 0.26 0.27 0.30 0.32 0.40 0.46 0.42 0.38
0.40 0.37 0.40 0.42 0.56 0.67 0.69 0.58 0.55 0.57 0.58 0.61 0.67 0.69 0.70 0.68 0.61 0.56 0.54 0.38 0.32 0.29 0.29 0.29 0.29 0.29 0.29 0.29 0.29 0.29 0.28 0.29 0.31 0.26 0.24 0.21 0.20 0.21 0.21 0.19 0.21 0.25 0.29 0.31 0.35 0.38 0.37 0.40 0.42 0.50 0.50 0.53 0.46 0.39 0.32 0.31 0.28 0.26 0.31 0.37 0.34 0.32 0.33
0.32 0.29 0.33 0.42 0.44 0.56 0.59 0.50 0.47 0.52 0.61 0.69 0.70 0.68 0.70 0.50 0.49 0.58 0.49 0.35 0.28 0.27 0.27 0.28 0.28 0.28 0.26 0.26 0.26 0.28 0.28 0.27 0.28 0.24 0.22 0.21 0.19 0.17 0.18 0.21 0.20 0.20 0.21 0.23 0.26 0.30 0.32 0.33 0.38 0.43 0.43 0.43 0.43 0.42 0.41 0.35 0.32 0.32 0.30 0.29 0.32 0.27 0.25
0.35 0.31 0.29 0.38 0.37 0.42 0.55 0.55 0.49 0.50 0.64 0.76 0.70 0.65 0.49 0.39 0.38 0.35 0.35 0.32 0.31 0.30 0.31 0.29 0.29 0.29 0.29 0.30 0.31 0.32 0.30 0.29 0.29 0.28 0.27 0.25 0.22 0.19 0.18 0.20 0.21 0.20 0.19 0.19 0.20 0.23 0.25 0.29 0.33 0.38 0.42 0.42 0.38 0.35 0.33 0.31 0.28 0.27 0.29 0.27 0.27 0.31 0.27

ECMWFFLT1_prec_precacc_105.txt.gz
Total_Precipitation_Accumulation
0.05 0.06 0.07 0.08 0.08 0.07 0.12 0.08 0.10 0.06 0.07 0.09 0.07 0.08 0.07 0.07 0.07 0.06 0.06 0.07 0.07 0.08 0.13 0.15 0.15 0.15 0.14 0.16 0.21 0.21 0.18 0.18 0.16 0.17 0.18 0.18 0.20 0.23 0.23 0.23 0.37 0.34 0.22 0.07 0.02 0.01 0.01 0.00 0.02 0.03 0.06 0.09 0.15 0.16 0.15 0.06 0.04 0.06 0.04 0.07 0.09 0.13 0.10
0.07 0.07 0.08 0.09 0.09 0.08 0.08 0.13 0.10 0.07 0.08 0.07 0.06 0.07 0.08 0.09 0.12 0.07 0.08 0.06 0.06 0.06 0.07 0.12 0.14 0.11 0.10 0.12 0.19 0.23 0.23 0.22 0.20 0.23 0.22 0.19 0.19 0.21 0.21 0.18 0.23 0.28 0.24 0.16 0.05 0.02 0.01 0.01 0.01 0.03 0.04 0.07 0.09 0.13 0.17 0.15 0.10 0.07 0.08 0.07 0.11 0.14 0.10
0.11 0.11 0.11 0.11 0.09 0.09 0.11 0.12 0.13 0.10 0.13 0.14 0.13 0.10 0.08 0.07 0.07 0.06 0.06 0.06 0.05 0.05 0.06 0.08 0.11 0.12 0.12 0.12 0.21 0.22 0.24 0.24 0.25 0.24 0.22 0.22 0.16 0.15 0.12 0.14 0.19 0.24 0.23 0.17 0.12 0.05 0.03 0.02 0.02 0.03 0.04 0.05 0.09 0.11 0.09 0.15 0.18 0.15 0.14 0.11 0.11 0.11 0.09
0.09 0.10 0.10 0.11 0.11 0.15 0.10 0.11 0.09 0.11 0.14 0.15 0.12 0.14 0.16 0.12 0.09 0.08 0.09 0.10 0.07 0.06 0.06 0.07 0.10 0.11 0.12 0.17 0.19 0.20 0.21 0.23 0.24 0.24 0.24 0.22 0.19 0.18 0.13 0.09 0.10 0.15 0.20 0.17 0.17 0.09 0.06 0.03 0.03 0.03 0.04 0.05 0.06 0.10 0.14 0.15 0.22 0.23 0.21 0.17 0.17 0.09 0.10
0.09 0.10 0.11 0.11 0.09 0.08 0.07 0.08 0.07 0.08 0.08 0.08 0.09 0.11 0.12 0.12 0.12 0.12 0.12 0.11 0.11 0.12 0.11 0.10 0.08 0.08 0.09 0.11 0.17 0.19 0.22 0.23 0.25 0.27 0.26 0.24 0.18 0.18 0.15 0.13 0.14 0.16 0.18 0.27 0.21 0.14 0.08 0.04 0.04 0.04 0.05 0.05 0.08 0.10 0.15 0.18 0.21 0.23 0.27 0.25 0.21 0.16 0.11
0.12 0.13 0.11 0.10 0.10 0.09 0.12 0.09 0.09 0.09 0.11 0.08 0.07 0.07 0.08 0.09 0.09 0.10 0.11 0.12 0.13 0.12 0.13 0.13 0.12 0.11 0.12 0.13 0.15 0.16 0.14 0.20 0.26 0.29 0.25 0.24 0.26 0.26 0.21 0.19 0.18 0.17 0.21 0.23 0.21 0.18 0.12 0.08 0.07 0.07 0.07 0.07 0.08 0.10 0.13 0.21 0.23 0.22 0.27 0.29 0.29 0.28 0.21
0.14 0.14 0.13 0.13 0.12 0.12 0.11 0.11 0.10 0.09 0.09 0.08 0.09 0.09 0.09 0.09 0.09 0.08 0.09 0.09 0.10 0.10 0.11 0.12 0.13 0.13 0.12 0.13 0.13 0.14 0.14 0.15 0.15 0.23 0.26 0.27 0.28 0.26 0.29 0.35 0.36 0.31 0.24 0.22 0.23 0.25 0.14 0.11 0.13 0.08 0.11 0.07 0.06 0.08 0.09 0.13 0.20 0.26 0.24 0.26 0.27 0.27 0.24
0.17 0.16 0.15 0.16 0.15 0.14 0.12 0.13 0.12 0.11 0.10 0.09 0.09 0.09 0.11 0.10 0.12 0.13 0.12 0.10 0.09 0.09 0.10 0.11 0.12 0.13 0.12 0.12 0.11 0.12 0.11 0.12 0.15 0.19 0.24 0.22 0.24 0.28 0.37 0.40 0.39 0.37 0.35 0.36 0.34 0.28 0.23 0.17 0.12 0.09 0.07 0.10 0.13 0.15 0.15 0.12 0.13 0.19 0.21 0.25 0.28 0.26 0.25
0.21 0.20 0.21 0.17 0.17 0.18 0.15 0.16 0.14 0.12 0.13 0.13 0.12 0.14 0.17 0.16 0.17 0.16 0.16 0.15 0.14 0.13 0.12 0.11 0.11 0.11 0.14 0.11 0.10 0.10 0.11 0.12 0.14 0.18 0.21 0.21 0.24 0.30 0.37 0.39 0.39 0.42 0.44 0.43 0.39 0.35 0.24 0.21 0.15 0.13 0.12 0.12 0.14 0.16 0.15 0.12 0.11 0.16 0.17 0.18 0.20 0.23 0.27
0.22 0.24 0.33 0.22 0.20 0.19 0.21 0.19 0.16 0.14 0.15 0.19 0.27 0.33 0.33 0.33 0.31 0.28 0.27 0.26 0.23 0.19 0.16 0.14 0.13 0.11 0.09 0.10 0.11 0.12 0.13 0.16 0.19 0.20 0.22 0.26 0.28 0.31 0.39 0.43 0.47 0.46 0.41 0.42 0.47 0.39 0.30 0.31 0.22 0.15 0.11 0.10 0.09 0.07 0.06 0.07 0.08 0.09 0.09 0.10 0.17 0.19 0.24
0.30 0.29 0.29 0.28 0.28 0.31 0.27 0.25 0.20 0.17 0.24 0.42 0.58 0.53 0.51 0.45 0.38 0.32 0.30 0.28 0.26 0.23 0.18 0.15 0.13 0.12 0.11 0.11 0.12 0.14 0.16 0.19 0.19 0.25 0.29 0.26 0.25 0.32 0.40 0.48 0.52 0.46 0.40 0.42 0.40 0.37 0.31 0.26 0.20 0.12 0.12 0.11 0.09 0.07 0.07 0.09 0.09 0.09 0.10 0.14 0.18 0.24 0.22
0.38 0.31 0.29 0.29 0.29 0.31 0.28 0.29 0.23 0.26 0.43 0.53 0.71 0.84 0.66 0.61 0.51 0.41 0.35 0.30 0.27 0.22 0.19 0.17 0.15 0.14 0.13 0.13 0.12 0.12 0.13 0.15 0.20 0.24 0.25 0.29 0.34 0.41 0.53 0.62 0.52 0.52 0.50 0.41 0.43 0.43 0.35 0.34 0.23 0.12 0.10 0.09 0.11 0.12 0.11 0.12 0.13 0.15 0.17 0.18 0.18 0.16 0.17
0.35 0.34 0.34 0.34 0.38 0.32 0.30 0.29 0.25 0.32 0.50 0.58 0.82 0.96 0.96 0.79 0.61 0.47 0.36 0.30 0.26 0.23 0.20 0.18 0.20 0.18 0.17 0.14 0.12 0.15 0.15 0.17 0.17 0.20 0.24 0.28 0.31 0.35 0.50 0.64 0.76 0.66 0.50 0.56 0.55 0.51 0.40 0.27 0.24 0.28 0.16 0.09 0.10 0.17 0.20 0.17 0.19 0.21 0.22 0.21 0.19 0.15 0.13
0.40 0.39 0.43 0.43 0.43 0.40 0.38 0.35 0.32 0.38 0.63 0.83 0.99 1.13 1.16 0.83 0.70 0.55 0.43 0.34 0.28 0.24 0.22 0.21 0.23 0.24 0.22 0.17 0.17 0.18 0.18 0.18 0.18 0.18 0.19 0.22 0.27 0.30 0.31 0.45 0.52 0.52 0.45 0.43 0.50 0.57 0.51 0.33 0.35 0.25 0.24 0.39 0.30 0.28 0.30 0.28 0.26 0.27 0.28 0.28 0.25 0.18 0.18
0.45 0.46 0.48 0.49 0.56 0.52 0.50 0.42 0.40 0.57 0.84 0.90 1.05 1.09 1.38 0.99 0.90 0.73 0.54 0.41 0.35 0.32 0.29 0.25 0.23 0.22 0.21 0.18 0.18 0.18 0.18 0.19 0.19 0.19 0.21 0.20 0.20 0.20 0.20 0.20 0.19 0.25 0.39 0.44 0.35 0.33 0.31 0.27 0.24 0.21 0.19 0.20 0.28 0.41 0.43 0.36 0.32 0.28 0.29 0.32 0.32 0.34 0.31
0.38 0.38 0.39 0.37 0.40 0.45 0.44 0.34 0.39 0.63 0.84 0.92 1.12 1.31 1.22 1.12 0.84 0.67 0.57 0.46 0.40 0.35 0.31 0.27 0.27 0.28 0.25 0.21 0.19 0.18 0.37 0.28 0.24 0.28 0.30 0.27 0.21 0.18 0.16 0.15 0.14 0.21 0.25 0.21 0.31 0.33 0.28 0.24 0.19 0.27 0.29 0.33 0.37 0.34 0.34 0.38 0.42 0.44 0.50 0.56 0.58 0.47 0.32
0.27 0.29 0.33 0.33 0.34 0.36 0.32 0.30 0.34 0.50 0.77 0.84 1.07 1.46 1.51 1.26 0.87 0.66 0.53 0.43 0.38 0.35 0.33 0.30 0.28 0.28 0.29 0.25 0.22 0.18 0.42 0.50 0.51 0.43 0.42 0.41 0.34 0.27 0.22 0.19 0.13 0.32 0.51 0.77 0.81 0.94 0.70 0.60 0.55 0.59 0.77 0.80 0.73 0.48 0.46 0.51 0.63 0.61 0.47 0.51 0.52 0.39 0.25
0.30 0.29 0.30 0.33 0.33 0.33 0.35 0.31 0.30 0.42 0.60 0.74 0.98 1.12 1.08 1.02 0.93 0.68 0.54 0.46 0.39 0.37 0.37 0.31 0.33 0.30 0.29 0.28 0.23 0.30 0.48 0.68 0.66 0.78 0.58 0.43 0.39 0.35 0.30 0.22 0.14 0.13 0.17 0.49 0.80 0.93 0.94 1.02 0.85 0.79 0.81 0.95 0.94 0.86 0.59 0.62 0.74 0.54 0.36 0.41 0.40 0.38 0.24
0.30 0.29 0.29 0.30 0.31 0.33 0.37 0.36 0.32 0.36 0.57 0.79 1.01 1.07 1.05 0.99 0.92 0.81 0.66 0.60 0.54 0.45 0.37 0.31 0.28 0.33 0.37 0.31 0.29 0.52 0.67 1.00 0.81 0.74 0.55 0.36 0.37 0.41 0.37 0.26 0.18 0.15 0.17 0.19 0.24 0.31 0.38 0.43 0.58 0.52 0.52 0.42 0.52 0.60 0.71 0.53 0.46 0.45 0.47 0.48 0.39 0.33 0.32
0.25 0.26 0.28 0.31 0.37 0.38 0.38 0.37 0.36 0.39 0.52 0.77 0.82 1.01 0.91 0.77 0.74 0.76 0.70 0.66 0.59 0.61 0.54 0.42 0.37 0.32 0.35 0.60 0.76 0.61 0.87 0.98 1.37 0.79 0.74 0.57 0.56 0.49 0.33 0.16 0.13 0.19 0.22 0.21 0.21 0.20 0.19 0.25 0.29 0.35 0.45 0.46 0.42 0.36 0.42 0.62 0.44 0.44 0.47 0.45 0.40 0.32 0.29
0.27 0.31 0.35 0.34 0.35 0.38 0.38 0.38 0.37 0.32 0.45 0.61 0.65 0.80 1.07 0.80 0.70 0.62 0.62 0.65 0.67 0.58 0.50 0.46 0.41 0.37 0.33 0.42 0.62 0.71 0.80 0.93 1.17 1.05 0.74 0.73 0.62 0.35 0.22 0.29 0.35 0.31 0.24 0.28 0.24 0.22 0.21 0.22 0.26 0.35 0.40 0.44 0.40 0.39 0.37 0.48 0.35 0.39 0.32 0.40 0.45 0.39 0.33
0.36 0.34 0.28 0.25 0.29 0.33 0.34 0.33 0.32 0.36 0.40 0.41 0.59 0.80 1.05 0.87 0.74 0.60 0.67 0.73 0.59 0.47 0.40 0.36 0.36 0.37 0.38 0.40 0.54 0.74 1.05 1.02 1.13 1.27 0.92 0.75 0.69 0.69 0.67 0.38 0.33 0.30 0.33 0.30 0.29 0.27 0.26 0.27 0.28 0.29 0.32 0.39 0.40 0.36 0.49 0.39 0.32 0.27 0.25 0.23 0.25 0.31 0.34
0.35 0.30 0.28 0.27 0.31 0.32 0.31 0.30 0.30 0.40 0.34 0.34 0.51 0.69 0.88 0.92 0.88 0.86 0.67 0.61 0.53 0.40 0.33 0.30 0.32 0.33 0.36 0.44 0.78 0.98 1.11 1.19 1.41 1.20 1.13 1.19 1.06 0.90 0.76 0.71 0.68 0.54 0.46 0.40 0.33 0.30 0.34 0.30 0.26 0.29 0.27 0.25 0.33 0.31 0.25 0.27 0.27 0.27 0.27 0.29 0.23 0.20 0.21
0.34 0.26 0.27 0.30 0.31 0.31 0.29 0.29 0.34 0.35 0.30 0.32 0.37 0.55 0.79 0.87 0.89 0.82 0.64 0.57 0.46 0.38 0.35 0.33 0.31 0.30 0.41 0.70 0.70 0.80 1.00 1.23 1.13 1.11 1.25 1.39 1.23 0.84 0.80 0.79 0.78 0.70 0.60 0.49 0.40 0.37 0.31 0.28 0.21 0.21 0.20 0.21 0.18 0.27 0.30 0.28 0.28 0.25 0.27 0.27 0.22 0.19 0.18
0.26 0.28 0.29 0.29 0.31 0.34 0.33 0.33 0.34 0.30 0.30 0.31 0.34 0.40 0.56 0.65 0.74 0.64 0.59 0.54 0.43 0.39 0.37 0.36 0.46 0.55 0.60 0.65 0.68 0.70 0.66 0.79 0.77 0.78 0.98 0.90 0.89 0.93 0.89 0.95 0.82 0.64 0.51 0.55 0.53 0.41 0.29 0.21 0.18 0.17 0.17 0.17 0.20 0.23 0.33 0.37 0.34 0.31 0.26 0.26 0.25 0.24 0.17
0.30 0.27 0.26 0.29 0.29 0.33 0.36 0.39 0.33 0.28 0.30 0.34 0.35 0.37 0.45 0.55 0.49 0.50 0.46 0.51 0.45 0.36 0.33 0.34 0.40 0.37 0.38 0.43 0.51 0.61 0.71 0.92 0.68 0.61 0.59 0.72 0.84 0.79 0.87 0.90 0.78 0.59 0.53 0.47 0.34 0.29 0.27 0.23 0.19 0.22 0.24 0.20 0.22 0.28 0.32 0.37 0.39 0.43 0.36 0.32 0.34 0.33 0.31
0.32 0.31 0.33 0.35 0.34 0.37 0.37 0.39 0.31 0.29 0.32 0.40 0.45 0.45 0.47 0.51 0.47 0.50 0.42 0.41 0.48 0.44 0.37 0.35 0.38 0.38 0.40 0.41 0.44 0.54 0.62 0.58 0.48 0.52 0.70 0.60 0.55 0.75 0.84 1.08 0.74 0.55 0.50 0.40 0.32 0.27 0.20 0.19 0.26 0.25 0.33 0.36 0.33 0.33 0.30 0.31 0.32 0.39 0.38 0.33 0.31 0.29 0.29
0.47 0.50 0.54 0.57 0.50 0.50 0.44 0.37 0.31 0.32 0.42 0.53 0.54 0.56 0.52 0.49 0.48 0.55 0.55 0.41 0.41 0.42 0.39 0.41 0.42 0.46 0.45 0.55 0.59 0.59 0.59 0.56 0.53 0.45 0.40 0.42 0.49 0.56 0.63 0.74 0.73 0.68 0.65 0.50 0.47 0.49 0.38 0.37 0.36 0.38 0.36 0.34 0.33 0.27 0.25 0.27 0.34 0.34 0.40 0.44 0.39 0.45 0.40
0.86 0.76 0.80 0.67 0.66 0.73 0.63 0.50 0.50 0.48 0.52 0.56 0.57 0.60 0.59 0.61 0.57 0.53 0.51 0.41 0.41 0.44 0.45 0.42 0.43 0.44 0.44 0.43 0.44 0.46 0.47 0.44 0.40 0.37 0.37 0.44 0.48 0.45 0.47 0.49 0.63 0.69 0.58 0.46 0.49 0.56 0.54 0.54 0.51 0.43 0.35 0.35 0.36 0.29 0.25 0.26 0.33 0.36 0.37 0.44 0.52 0.54 0.43
1.04 1.01 0.98 0.85 0.66 0.68 0.77 0.70 0.59 0.56 0.72 0.70 0.69 0.77 0.64 0.59 0.65 0.60 0.48 0.42 0.40 0.39 0.40 0.36 0.34 0.35 0.35 0.34 0.32 0.34 0.34 0.33 0.33 0.33 0.34 0.37 0.42 0.40 0.41 0.43 0.48 0.52 0.48 0.44 0.52 0.49 0.53 0.49 0.46 0.39 0.37 0.36 0.35 0.33 0.28 0.27 0.34 0.40 0.42 0.48 0.58 0.56 0.49
0.91 0.96 0.80 0.73 0.79 0.69 0.49 0.47 0.44 0.47 0.64 0.67 0.80 0.77 0.68 0.67 0.71 0.61 0.52 0.43 0.40 0.37 0.33 0.32 0.28 0.31 0.30 0.28 0.28 0.29 0.29 0.29 0.30 0.29 0.29 0.32 0.34 0.34 0.37 0.41 0.42 0.47 0.46 0.46 0.48 0.51 0.55 0.50 0.47 0.41 0.34 0.33 0.30 0.29 0.33 0.39 0.43 0.39 0.46 0.48 0.47 0.47 0.43
0.73 0.80 0.87 0.70 0.76 0.87 0.65 0.54 0.51 0.50 0.65 0.74 0.81 0.78 0.69 0.68 0.77 0.73 0.57 0.40 0.33 0.31 0.30 0.28 0.26 0.28 0.28 0.26 0.25 0.25 0.25 0.28 0.31 0.32 0.32 0.30 0.26 0.25 0.25 0.29 0.36 0.42 0.44 0.45 0.47 0.47 0.50 0.54 0.53 0.48 0.40 0.33 0.29 0.28 0.30 0.36 0.47 0.51 0.61 0.56 0.49 0.43 0.38
0.51 0.56 0.66 0.67 0.80 0.86 0.80 0.64 0.60 0.60 0.66 0.69 0.78 0.75 0.64 0.65 0.68 0.61 0.56 0.47 0.35 0.29 0.30 0.28 0.26 0.26 0.27 0.26 0.25 0.26 0.27 0.30 0.33 0.28 0.27 0.27 0.27 0.25 0.23 0.23 0.25 0.30 0.37 0.40 0.43 0.44 0.46 0.56 0.48 0.52 0.49 0.46 0.38 0.34 0.31 0.28 0.30 0.34 0.37 0.45 0.51 0.46 0.41
0.40 0.37 0.40 0.42 0.56 0.68 0.69 0.59 0.56 0.58 0.59 0.63 0.69 0.71 0.71 0.73 0.65 0.58 0.56 0.39 0.32 0.29 0.29 0.29 0.29 0.29 0.29 0.29 0.29 0.29 0.28 0.29 0.31 0.26 0.24 0.21 0.20 0.21 0.21 0.19 0.21 0.25 0.30 0.32 0.35 0.39 0.38 0.40 0.43 0.51 0.51 0.53 0.47 0.40 0.33 0.32 0.29 0.28 0.34 0.40 0.38 0.36 0.36
0.32 0.29 0.33 0.42 0.45 0.56 0.60 0.50 0.47 0.53 0.62 0.70 0.70 0.69 0.78 0.56 0.52 0.59 0.50 0.35 0.28 0.28 0.28 0.28 0.28 0.28 0.26 0.26 0.26 0.28 0.28 0.27 0.28 0.24 0.22 0.21 0.19 0.17 0.18 0.21 0.20 0.20 0.22 0.24 0.27 0.30 0.33 0.34 0.39 0.43 0.44 0.44 0.43 0.43 0.42 0.36 0.33 0.33 0.32 0.32 0.35 0.31 0.29
0.35 0.31 0.29 0.38 0.37 0.42 0.55 0.55 0.49 0.51 0.65 0.77 0.75 0.72 0.56 0.43 0.39 0.35 0.36 0.32 0.31 0.30 0.31 0.29 0.30 0.29 0.29 0.30 0.31 0.32 0.30 0.29 0.29 0.28 0.27 0.25 0.22 0.19 0.18 0.20 0.21 0.20 0.20 0.19 0.21 0.24 0.26 0.29 0.34 0.38 0.43 0.43 0.39 0.36 0.34 0.32 0.29 0.28 0.30 0.29 0.29 0.33 0.30

ECMWFFLT1_prec_precacc_108.txt.gz
Total_Precipitation_Accumulation
0.05 0.06 0.07 0.08 0.08 0.07 0.12 0.08 0.10 0.06 0.07 0.09 0.07 0.08 0.07 0.07 0.07 0.06 0.06 0.07 0.07 0.08 0.13 0.15 0.15 0.15 0.14 0.16 0.21 0.21 0.18 0.18 0.16 0.17 0.18 0.18 0.20 0.23 0.23 0.23 0.37 0.34 0.22 0.07 0.02 0.01 0.01 0.00 0.02 0.03 0.06 0.09 0.15 0.16 0.15 0.06 0.04 0.06 0.04 0.07 0.09 0.13 0.10
0.07 0.07 0.08 0.09 0.09 0.08 0.08 0.13 0.10 0.07 0.08 0.07 0.06 0.07 0.08 0.09 0.12 0.07 0.08 0.06 0.06 0.06 0.07 0.12 0.14 0.11 0.10 0.12 0.19 0.23 0.23 0.22 0.20 0.23 0.22 0.19 0.19 0.21 0.21 0.18 0.23 0.28 0.24 0.16 0.05 0.02 0.01 0.01 0.01 0.03 0.04 0.07 0.09 0.13 0.17 0.15 0.10 0.07 0.08 0.07 0.11 0.14 0.10
0.11 0.11 0.11 0.11 0.09 0.09 0.11 0.12 0.13 0.10 0.13 0.14 0.13 0.10 0.08 0.07 0.07 0.06 0.06 0.06 0.05 0.05 0.06 0.08 0.11 0.12 0.12 0.12 0.21 0.22 0.24 0.24 0.25 0.24 0.22 0.22 0.16 0.15 0.12 0.14 0.19 0.24 0.23 0.17 0.12 0.05 0.03 0.02 0.02 0.03 0.04 0.05 0.09 0.11 0.09 0.15 0.18 0.15 0.14 0.11 0.11 0.11 0.09
0.09 0.10 0.10 0.11 0.11 0.15 0.10 0.11 0.09 0.11 0.14 0.15 0.12 0.14 0.16 0.12 0.09 0.08 0.09 0.10 0.07 0.06 0.06 0.07 0.10 0.11 0.12 0.17 0.19 0.20 0.21 0.23 0.24 0.24 0.24 0.22 0.19 0.18 0.13 0.09 0.10 0.15 0.20 0.18 0.17 0.09 0.06 0.03 0.03 0.03 0.04 0.05 0.06 0.10 0.14 0.15 0.22 0.23 0.21 0.17 0.17 0.09 0.10
0.09 0.10 0.11 0.11 0.09 0.08 0.07 0.08 0.07 0.08 0.08 0.08 0.09 0.11 0.12 0.12 0.12 0.12 0.12 0.11 0.11 0.12 0.11 0.10 0.08 0.08 0.09 0.11 0.17 0.19 0.22 0.23 0.25 0.27 0.26 0.24 0.18 0.18 0.15 0.13 0.14 0.16 0.18 0.27 0.21 0.15 0.08 0.04 0.04 0.04 0.05 0.05 0.08 0.10 0.15 0.18 0.21 0.23 0.27 0.25 0.21 0.16 0.11
0.12 0.13 0.11 0.10 0.10 0.09 0.12 0.09 0.09 0.09 0.11 0.08 0.07 0.07 0.08 0.09 0.09 0.10 0.11 0.12 0.13 0.12 0.13 0.13 0.12 0.11 0.12 0.13 0.15 0.16 0.14 0.20 0.26 0.29 0.25 0.24 0.26 0.26 0.21 0.19 0.18 0.17 0.21 0.23 0.22 0.19 0.12 0.08 0.07 0.07 0.07 0.07 0.08 0.10 0.13 0.21 0.23 0.22 0.27 0.29 0.29 0.28 0.21
0.14 0.14 0.13 0.13 0.12 0.12 0.11 0.11 0.10 0.09 0.09 0.08 0.09 0.09 0.09 0.09 0.09 0.08 0.09 0.09 0.10 0.10 0.11 0.12 0.13 0.13 0.12 0.13 0.13 0.14 0.14 0.15 0.15 0.23 0.26 0.27 0.28 0.26 0.29 0.35 0.36 0.31 0.24 0.22 0.23 0.25 0.14 0.11 0.14 0.08 0.11 0.07 0.06 0.08 0.09 0.13 0.20 0.26 0.24 0.26 0.27 0.27 0.24
0.17 0.16 0.15 0.16 0.15 0.14 0.12 0.13 0.12 0.11 0.10 0.09 0.09 0.09 0.11 0.10 0.12 0.13 0.12 0.10 0.09 0.09 0.10 0.11 0.12 0.13 0.12 0.12 0.11 0.12 0.11 0.12 0.15 0.19 0.24 0.22 0.24 0.28 0.37 0.40 0.39 0.37 0.36 0.36 0.35 0.28 0.23 0.17 0.12 0.10 0.07 0.10 0.13 0.15 0.15 0.12 0.13 0.19 0.21 0.25 0.28 0.26 0.25
0.21 0.20 0.21 0.17 0.17 0.18 0.15 0.16 0.14 0.12 0.13 0.13 0.12 0.14 0.17 0.16 0.17 0.16 0.16 0.15 0.14 0.13 0.12 0.11 0.11 0.11 0.14 0.11 0.10 0.10 0.11 0.12 0.14 0.18 0.21 0.21 0.24 0.30 0.37 0.39 0.39 0.42 0.44 0.43 0.39 0.36 0.24 0.21 0.15 0.13 0.12 0.12 0.14 0.16 0.15 0.12 0.11 0.16 0.17 0.18 0.20 0.23 0.27
0.22 0.24 0.33 0.22 0.20 0.19 0.21 0.19 0.16 0.14 0.15 0.19 0.27 0.33 0.33 0.33 0.31 0.29 0.28 0.26 0.23 0.19 0.16 0.14 0.13 0.11 0.09 0.10 0.11 0.12 0.13 0.16 0.19 0.20 0.22 0.26 0.28 0.31 0.39 0.43 0.47 0.46 0.41 0.42 0.47 0.39 0.30 0.31 0.22 0.15 0.11 0.10 0.09 0.07 0.06 0.07 0.08 0.09 0.09 0.10 0.17 0.19 0.24
0.30 0.29 0.29 0.28 0.28 0.31 0.27 0.25 0.20 0.17 0.24 0.43 0.59 0.54 0.52 0.47 0.39 0.33 0.32 0.29 0.27 0.24 0.19 0.15 0.13 0.12 0.11 0.12 0.12 0.14 0.16 0.19 0.20 0.26 0.30 0.27 0.25 0.33 0.41 0.50 0.54 0.48 0.41 0.43 0.40 0.38 0.31 0.26 0.20 0.12 0.12 0.11 0.09 0.07 0.07 0.09 0.09 0.09 0.10 0.14 0.18 0.24 0.22
0.38 0.31 0.29 0.29 0.29 0.31 0.28 0.29 0.23 0.26 0.43 0.54 0.73 0.88 0.68 0.62 0.52 0.42 0.36 0.31 0.28 0.23 0.20 0.17 0.15 0.14 0.13 0.13 0.12 0.12 0.13 0.15 0.20 0.24 0.25 0.29 0.35 0.41 0.53 0.64 0.54 0.54 0.52 0.43 0.44 0.44 0.35 0.34 0.23 0.12 0.10 0.09 0.11 0.12 0.11 0.12 0.13 0.15 0.17 0.18 0.18 0.16 0.17
0.35 0.34 0.34 0.34 0.38 0.32 0.30 0.29 0.25 0.32 0.50 0.59 0.84 0.99 1.00 0.80 0.62 0.49 0.37 0.31 0.27 0.24 0.21 0.19 0.20 0.18 0.17 0.14 0.12 0.15 0.15 0.17 0.17 0.20 0.24 0.28 0.31 0.35 0.50 0.67 0.80 0.68 0.51 0.57 0.57 0.54 0.43 0.29 0.25 0.29 0.16 0.09 0.10 0.17 0.20 0.17 0.19 0.21 0.22 0.21 0.19 0.15 0.13
0.40 0.39 0.43 0.43 0.43 0.40 0.38 0.35 0.32 0.38 0.63 0.83 1.00 1.16 1.20 0.85 0.72 0.58 0.46 0.36 0.30 0.25 0.23 0.21 0.23 0.24 0.22 0.17 0.17 0.18 0.18 0.18 0.18 0.18 0.19 0.22 0.27 0.30 0.31 0.45 0.52 0.53 0.45 0.43 0.50 0.58 0.51 0.33 0.35 0.25 0.24 0.39 0.30 0.28 0.30 0.28 0.26 0.27 0.28 0.28 0.25 0.19 0.18
0.45 0.46 0.48 0.49 0.56 0.52 0.50 0.42 0.40 0.57 0.84 0.91 1.06 1.12 1.43 1.01 0.92 0.75 0.55 0.42 0.35 0.32 0.29 0.25 0.24 0.23 0.21 0.18 0.18 0.18 0.18 0.19 0.19 0.19 0.21 0.20 0.20 0.20 0.20 0.20 0.19 0.25 0.39 0.44 0.35 0.33 0.31 0.27 0.24 0.21 0.19 0.20 0.28 0.41 0.43 0.36 0.32 0.29 0.30 0.34 0.33 0.35 0.32
0.38 0.38 0.39 0.37 0.40 0.45 0.44 0.34 0.39 0.63 0.84 0.93 1.14 1.33 1.24 1.14 0.86 0.68 0.58 0.47 0.40 0.35 0.31 0.27 0.27 0.28 0.25 0.21 0.19 0.18 0.37 0.28 0.24 0.28 0.30 0.27 0.21 0.18 0.16 0.15 0.14 0.21 0.25 0.21 0.32 0.33 0.29 0.24 0.19 0.27 0.29 0.34 0.37 0.34 0.35 0.40 0.45 0.48 0.54 0.59 0.60 0.49 0.33
0.27 0.29 0.33 0.33 0.34 0.36 0.32 0.30 0.34 0.50 0.77 0.84 1.07 1.48 1.54 1.28 0.88 0.67 0.53 0.43 0.38 0.35 0.33 0.30 0.28 0.28 0.29 0.25 0.22 0.18 0.43 0.51 0.51 0.43 0.43 0.41 0.35 0.27 0.23 0.19 0.13 0.32 0.57 0.81 0.89 1.01 0.77 0.68 0.65 0.71 0.88 0.89 0.83 0.58 0.57 0.63 0.73 0.67 0.50 0.54 0.55 0.41 0.26
0.30 0.29 0.30 0.33 0.33 0.33 0.35 0.31 0.30 0.42 0.61 0.74 0.99 1.14 1.11 1.05 0.96 0.70 0.55 0.48 0.40 0.37 0.37 0.31 0.33 0.30 0.29 0.29 0.23 0.30 0.48 0.69 0.67 0.79 0.59 0.44 0.40 0.36 0.31 0.23 0.15 0.13 0.17 0.54 0.83 0.98 0.99 1.07 0.88 0.82 0.83 0.96 0.95 0.86 0.59 0.62 0.75 0.55 0.36 0.41 0.41 0.39 0.24
0.30 0.29 0.29 0.30 0.31 0.33 0.37 0.36 0.32 0.36 0.57 0.79 1.02 1.07 1.06 1.00 0.93 0.82 0.66 0.60 0.54 0.45 0.37 0.31 0.28 0.33 0.37 0.31 0.29 0.52 0.68 1.04 0.83 0.76 0.57 0.37 0.38 0.43 0.38 0.27 0.18 0.16 0.18 0.19 0.24 0.31 0.38 0.43 0.58 0.52 0.52 0.42 0.52 0.60 0.71 0.53 0.47 0.45 0.47 0.48 0.39 0.33 0.32
0.25 0.26 0.28 0.31 0.37 0.38 0.38 0.37 0.36 0.39 0.52 0.77 0.83 1.02 0.92 0.79 0.76 0.78 0.72 0.67 0.59 0.61 0.54 0.42 0.37 0.32 0.35 0.60 0.76 0.62 0.91 1.02 1.43 0.80 0.75 0.58 0.57 0.50 0.34 0.18 0.15 0.20 0.23 0.22 0.22 0.21 0.19 0.25 0.29 0.35 0.45 0.46 0.42 0.36 0.42 0.62 0.44 0.44 0.47 0.45 0.40 0.32 0.29
0.27 0.31 0.35 0.34 0.35 0.38 0.38 0.38 0.37 0.32 0.45 0.62 0.66 0.81 1.09 0.82 0.72 0.63 0.63 0.65 0.67 0.58 0.50 0.46 0.41 0.37 0.33 0.42 0.62 0.72 0.83 0.97 1.22 1.07 0.76 0.74 0.63 0.36 0.23 0.31 0.38 0.33 0.26 0.28 0.24 0.22 0.22 0.22 0.26 0.35 0.40 0.44 0.40 0.39 0.37 0.48 0.35 0.39 0.32 0.40 0.45 0.39 0.33
0.36 0.34 0.28 0.25 0.29 0.33 0.34 0.33 0.32 0.36 0.40 0.41 0.59 0.81 1.06 0.89 0.76 0.62 0.69 0.75 0.60 0.47 0.40 0.36 0.36 0.37 0.38 0.40 0.54 0.76 1.08 1.05 1.16 1.31 0.95 0.77 0.73 0.73 0.71 0.42 0.35 0.31 0.34 0.30 0.29 0.27 0.26 0.27 0.28 0.29 0.32 0.39 0.40 0.36 0.49 0.39 0.32 0.27 0.25 0.23 0.25 0.32 0.34
0.35 0.30 0.28 0.27 0.31 0.32 0.31 0.30 0.30 0.40 0.34 0.34 0.51 0.70 0.89 0.93 0.91 0.89 0.68 0.63 0.54 0.41 0.34 0.31 0.33 0.33 0.36 0.44 0.79 1.01 1.15 1.22 1.44 1.24 1.15 1.20 1.09 0.93 0.77 0.72 0.68 0.55 0.46 0.40 0.33 0.31 0.34 0.30 0.26 0.29 0.27 0.25 0.33 0.31 0.25 0.27 0.27 0.27 0.27 0.29 0.23 0.20 0.21
0.34 0.26 0.27 0.30 0.31 0.31 0.29 0.29 0.34 0.35 0.30 0.32 0.37 0.55 0.79 0.87 0.91 0.86 0.66 0.59 0.48 0.40 0.38 0.35 0.32 0.30 0.41 0.72 0.73 0.82 1.04 1.27 1.16 1.12 1.26 1.41 1.24 0.84 0.80 0.79 0.78 0.70 0.60 0.49 0.40 0.37 0.31 0.28 0.21 0.21 0.20 0.21 0.18 0.27 0.30 0.28 0.28 0.25 0.27 0.27 0.22 0.19 0.18
0.26 0.28 0.29 0.29 0.31 0.34 0.33 0.33 0.34 0.30 0.30 0.31 0.34 0.40 0.57 0.65 0.76 0.65 0.60 0.54 0.43 0.39 0.37 0.36 0.46 0.57 0.63 0.68 0.73 0.74 0.69 0.80 0.77 0.78 0.98 0.90 0.89 0.93 0.89 0.95 0.82 0.64 0.51 0.55 0.53 0.41 0.29 0.21 0.18 0.17 0.17 0.17 0.20 0.23 0.33 0.37 0.34 0.31 0.26 0.26 0.25 0.24 0.17
0.30 0.28 0.27 0.29 0.29 0.33 0.36 0.39 0.33 0.28 0.30 0.34 0.35 0.37 0.46 0.55 0.49 0.50 0.46 0.51 0.45 0.36 0.33 0.34 0.42 0.37 0.38 0.43 0.51 0.61 0.72 0.92 0.68 0.61 0.59 0.72 0.84 0.79 0.87 0.90 0.78 0.59 0.53 0.47 0.34 0.29 0.27 0.23 0.19 0.22 0.24 0.20 0.22 0.28 0.32 0.37 0.39 0.43 0.36 0.32 0.34 0.33 0.31
0.32 0.31 0.33 0.35 0.34 0.37 0.37 0.39 0.31 0.29 0.32 0.40 0.45 0.45 0.47 0.51 0.47 0.50 0.42 0.41 0.48 0.44 0.37 0.36 0.38 0.39 0.41 0.41 0.45 0.54 0.62 0.58 0.49 0.52 0.70 0.60 0.55 0.76 0.85 1.08 0.74 0.55 0.50 0.40 0.32 0.27 0.20 0.19 0.26 0.25 0.33 0.36 0.33 0.33 0.30 0.31 0.32 0.39 0.38 0.33 0.31 0.30 0.29
0.48 0.50 0.54 0.57 0.50 0.50 0.44 0.37 0.31 0.32 0.42 0.53 0.54 0.56 0.52 0.49 0.48 0.55 0.55 0.41 0.41 0.43 0.39 0.41 0.43 0.46 0.45 0.55 0.59 0.60 0.59 0.56 0.53 0.45 0.40 0.42 0.49 0.56 0.63 0.74 0.73 0.68 0.65 0.50 0.47 0.49 0.38 0.37 0.36 0.38 0.36 0.34 0.33 0.27 0.25 0.27 0.34 0.34 0.41 0.44 0.40 0.46 0.40
0.86 0.76 0.80 0.67 0.66 0.73 0.63 0.50 0.50 0.48 0.52 0.56 0.57 0.61 0.60 0.61 0.57 0.53 0.51 0.41 0.41 0.45 0.46 0.43 0.44 0.45 0.45 0.43 0.44 0.46 0.47 0.44 0.40 0.37 0.37 0.44 0.48 0.45 0.47 0.49 0.63 0.69 0.58 0.46 0.49 0.56 0.54 0.54 0.51 0.43 0.35 0.35 0.36 0.29 0.25 0.26 0.34 0.37 0.37 0.44 0.52 0.54 0.43
1.05 1.02 0.99 0.87 0.67 0.69 0.79 0.72 0.60 0.57 0.73 0.73 0.73 0.80 0.66 0.61 0.69 0.64 0.53 0.45 0.42 0.40 0.40 0.37 0.34 0.35 0.35 0.34 0.32 0.34 0.34 0.33 0.33 0.33 0.34 0.37 0.42 0.40 0.41 0.43 0.48 0.52 0.48 0.44 0.52 0.49 0.53 0.49 0.46 0.40 0.37 0.36 0.35 0.34 0.28 0.27 0.35 0.41 0.43 0.48 0.58 0.56 0.49
0.92 0.99 0.82 0.76 0.83 0.73 0.52 0.50 0.46 0.48 0.65 0.69 0.82 0.80 0.72 0.70 0.72 0.62 0.54 0.44 0.41 0.38 0.33 0.32 0.28 0.31 0.30 0.28 0.28 0.29 0.29 0.29 0.30 0.29 0.29 0.32 0.34 0.34 0.37 0.41 0.42 0.47 0.46 0.46 0.48 0.51 0.55 0.50 0.47 0.41 0.34 0.33 0.30 0.30 0.33 0.39 0.43 0.40 0.46 0.49 0.48 0.47 0.43
0.75 0.83 0.90 0.73 0.78 0.88 0.67 0.55 0.53 0.51 0.66 0.76 0.84 0.81 0.72 0.70 0.79 0.75 0.62 0.42 0.34 0.31 0.30 0.28 0.26 0.28 0.28 0.26 0.25 0.25 0.25 0.28 0.31 0.32 0.32 0.30 0.27 0.25 0.25 0.29 0.36 0.42 0.44 0.45 0.47 0.47 0.50 0.54 0.53 0.48 0.40 0.34 0.29 0.28 0.30 0.37 0.47 0.52 0.62 0.57 0.49 0.43 0.39
0.52 0.57 0.67 0.68 0.82 0.88 0.82 0.65 0.62 0.62 0.68 0.73 0.80 0.77 0.66 0.66 0.69 0.61 0.58 0.49 0.36 0.29 0.30 0.28 0.26 0.26 0.27 0.26 0.25 0.26 0.27 0.30 0.34 0.28 0.27 0.27 0.27 0.25 0.23 0.23 0.25 0.31 0.37 0.40 0.43 0.44 0.46 0.56 0.49 0.52 0.49 0.46 0.38 0.34 0.31 0.28 0.30 0.34 0.37 0.45 0.51 0.46 0.41
0.41 0.37 0.40 0.42 0.56 0.68 0.70 0.59 0.56 0.59 0.60 0.63 0.69 0.71 0.71 0.73 0.66 0.59 0.60 0.41 0.33 0.29 0.29 0.29 0.29 0.29 0.29 0.29 0.29 0.29 0.28 0.29 0.31 0.26 0.24 0.21 0.20 0.21 0.21 0.19 0.21 0.25 0.30 0.32 0.36 0.39 0.38 0.40 0.43 0.51 0.51 0.54 0.47 0.40 0.33 0.32 0.29 0.28 0.34 0.40 0.38 0.36 0.37
0.32 0.29 0.33 0.42 0.45 0.56 0.60 0.50 0.47 0.53 0.62 0.70 0.70 0.70 0.78 0.59 0.54 0.60 0.50 0.36 0.28 0.28 0.28 0.28 0.28 0.28 0.26 0.26 0.26 0.28 0.28 0.27 0.28 0.24 0.22 0.21 0.19 0.17 0.18 0.21 0.20 0.20 0.22 0.24 0.27 0.30 0.33 0.34 0.39 0.43 0.44 0.44 0.44 0.43 0.42 0.36 0.33 0.33 0.32 0.32 0.35 0.31 0.29
0.35 0.31 0.29 0.38 0.37 0.42 0.56 0.55 0.49 0.51 0.65 0.78 0.76 0.75 0.60 0.46 0.41 0.36 0.36 0.32 0.31 0.31 0.31 0.29 0.30 0.29 0.29 0.30 0.31 0.32 0.30 0.29 0.29 0.28 0.27 0.25 0.22 0.19 0.18 0.20 0.21 0.21 0.20 0.19 0.21 0.24 0.26 0.29 0.34 0.38 0.43 0.43 0.39 0.36 0.34 0.32 0.29 0.28 0.30 0.29 0.29 0.33 0.30

ECMWFFLT1_prec_precacc_111.txt.gz
Total_Precipitation_Accumulation
0.05 0.06 0.07 0.08 0.08 0.07 0.12 0.08 0.10 0.06 0.07 0.09 0.07 0.08 0.07 0.07 0.07 0.06 0.06 0.07 0.07 0.08 0.13 0.15 0.15 0.15 0.14 0.16 0.21 0.21 0.18 0.18 0.16 0.17 0.18 0.18 0.20 0.23 0.23 0.23 0.37 0.34 0.22 0.07 0.02 0.01 0.01 0.00 0.02 0.03 0.06 0.09 0.15 0.16 0.15 0.06 0.04 0.06 0.04 0.07 0.09 0.13 0.10
0.07 0.07 0.08 0.09 0.09 0.08 0.08 0.13 0.10 0.07 0.08 0.07 0.06 0.07 0.08 0.09 0.12 0.07 0.08 0.06 0.06 0.06 0.07 0.12 0.14 0.11 0.10 0.12 0.19 0.23 0.23 0.22 0.20 0.23 0.22 0.19 0.19 0.21 0.21 0.18 0.23 0.28 0.24 0.16 0.05 0.02 0.01 0.01 0.01 0.03 0.04 0.07 0.09 0.13 0.17 0.15 0.10 0.07 0.08 0.07 0.11 0.14 0.10
0.11 0.11 0.11 0.11 0.09 0.09 0.11 0.12 0.13 0.10 0.13 0.14 0.13 0.10 0.08 0.07 0.07 0.06 0.06 0.06 0.05 0.05 0.06 0.08 0.11 0.12 0.12 0.12 0.21 0.22 0.24 0.24 0.25 0.24 0.22 0.22 0.16 0.15 0.12 0.14 0.19 0.24 0.23 0.17 0.12 0.05 0.03 0.02 0.02 0.03 0.04 0.05 0.09 0.11 0.09 0.15 0.18 0.15 0.14 0.11 0.11 0.11 0.09
0.09 0.10 0.10 0.11 0.11 0.15 0.10 0.11 0.09 0.11 0.14 0.15 0.12 0.14 0.16 0.12 0.09 0.08 0.09 0.10 0.07 0.06 0.06 0.07 0.10 0.11 0.12 0.17 0.19 0.20 0.21 0.23 0.24 0.24 0.24 0.22 0.19 0.18 0.13 0.09 0.10 0.15 0.20 0.18 0.17 0.09 0.06 0.03 0.03 0.03 0.04 0.05 0.06 0.10 0.14 0.15 0.22 0.23 0.21 0.17 0.17 0.09 0.10
0.09 0.10 0.11 0.11 0.09 0.08 0.07 0.08 0.07 0.08 0.08 0.08 0.09 0.11 0.12 0.12 0.12 0.12 0.12 0.11 0.11 0.12 0.11 0.10 0.08 0.08 0.09 0.11 0.17 0.19 0.22 0.23 0.25 0.27 0.26 0.24 0.18 0.18 0.15 0.13 0.14 0.16 0.18 0.27 0.21 0.15 0.08 0.04 0.04 0.04 0.05 0.05 0.08 0.10 0.15 0.18 0.21 0.23 0.27 0.25 0.21 0.16 0.11
0.12 0.13 0.11 0.10 0.10 0.09 0.12 0.09 0.09 0.09 0.11 0.08 0.07 0.07 0.08 0.09 0.09 0.10 0.11 0.12 0.13 0.12 0.13 0.13 0.12 0.11 0.12 0.13 0.15 0.16 0.14 0.20 0.26 0.29 0.25 0.24 0.26 0.26 0.21 0.19 0.18 0.17 0.21 0.23 0.22 0.19 0.12 0.08 0.07 0.07 0.07 0.07 0.08 0.10 0.13 0.21 0.23 0.22 0.27 0.29 0.29 0.28 0.21
0.14 0.14 0.13 0.13 0.12 0.12 0.11 0.11 0.10 0.09 0.09 0.08 0.09 0.09 0.09 0.09 0.09 0.08 0.09 0.09 0.10 0.10 0.11 0.12 0.13 0.13 0.12 0.13 0.13 0.14 0.14 0.15 0.15 0.23 0.26 0.27 0.28 0.26 0.29 0.35 0.36 0.31 0.24 0.22 0.24 0.26 0.14 0.12 0.14 0.08 0.11 0.07 0.06 0.08 0.09 0.13 0.20 0.26 0.24 0.26 0.27 0.27 0.24
0.17 0.16 0.15 0.16 0.15 0.14 0.12 0.13 0.12 0.11 0.10 0.09 0.09 0.09 0.11 0.10 0.12 0.13 0.12 0.10 0.09 0.09 0.10 0.11 0.12 0.13 0.12 0.12 0.11 0.12 0.11 0.12 0.15 0.19 0.24 0.22 0.24 0.28 0.37 0.40 0.39 0.37 0.36 0.36 0.35 0.28 0.23 0.17 0.12 0.10 0.07 0.10 0.13 0.15 0.15 0.12 0.13 0.19 0.21 0.25 0.28 0.26 0.25
0.21 0.20 0.21 0.17 0.17 0.18 0.15 0.16 0.14 0.12 0.13 0.13 0.12 0.14 0.17 0.16 0.17 0.16 0.16 0.15 0.14 0.13 0.12 0.11 0.11 0.11 0.14 0.11 0.10 0.10 0.11 0.12 0.14 0.18 0.21 0.21 0.24 0.30 0.37 0.39 0.39 0.42 0.45 0.43 0.39 0.36 0.24 0.21 0.15 0.13 0.12 0.12 0.14 0.16 0.15 0.12 0.11 0.16 0.17 0.18 0.20 0.23 0.27
0.22 0.24 0.33 0.22 0.20 0.19 0.21 0.19 0.16 0.14 0.15 0.19 0.27 0.33 0.33 0.33 0.31 0.29 0.28 0.26 0.23 0.19 0.16 0.14 0.13 0.11 0.09 0.10 0.11 0.12 0.13 0.16 0.19 0.20 0.22 0.26 0.28 0.31 0.39 0.43 0.47 0.46 0.41 0.42 0.48 0.39 0.30 0.31 0.22 0.15 0.11 0.10 0.09 0.07 0.06 0.07 0.08 0.09 0.09 0.10 0.17 0.19 0.24
0.30 0.29 0.29 0.28 0.28 0.31 0.27 0.25 0.20 0.17 0.24 0.43 0.59 0.55 0.53 0.47 0.40 0.34 0.32 0.30 0.27 0.24 0.19 0.15 0.13 0.12 0.11 0.12 0.12 0.14 0.16 0.19 0.20 0.26 0.30 0.27 0.26 0.33 0.42 0.50 0.54 0.48 0.41 0.43 0.40 0.38 0.31 0.26 0.20 0.12 0.12 0.11 0.09 0.07 0.07 0.09 0.09 0.09 0.10 0.14 0.18 0.24 0.22
0.38 0.31 0.29 0.29 0.29 0.31 0.28 0.29 0.23 0.26 0.43 0.54 0.73 0.89 0.69 0.64 0.53 0.43 0.37 0.33 0.30 0.25 0.21 0.18 0.16 0.14 0.13 0.13 0.12 0.12 0.13 0.15 0.20 0.24 0.25 0.29 0.35 0.42 0.54 0.65 0.56 0.56 0.53 0.44 0.45 0.44 0.36 0.34 0.24 0.12 0.10 0.09 0.11 0.12 0.11 0.12 0.13 0.15 0.17 0.18 0.18 0.16 0.17
0.35 0.34 0.34 0.34 0.38 0.32 0.30 0.29 0.25 0.32 0.50 0.60 0.85 1.02 1.01 0.81 0.63 0.49 0.38 0.32 0.28 0.25 0.22 0.19 0.21 0.19 0.17 0.14 0.13 0.15 0.15 0.17 0.17 0.20 0.24 0.28 0.31 0.35 0.50 0.68 0.85 0.72 0.54 0.60 0.59 0.56 0.45 0.30 0.27 0.30 0.17 0.09 0.10 0.17 0.20 0.17 0.19 0.21 0.22 0.21 0.19 0.15 0.13
0.40 0.39 0.43 0.43 0.43 0.40 0.38 0.35 0.32 0.38 0.64 0.83 1.00 1.17 1.23 0.86 0.73 0.59 0.47 0.37 0.31 0.26 0.23 0.22 0.23 0.25 0.22 0.18 0.17 0.18 0.19 0.18 0.18 0.18 0.19 0.22 0.28 0.30 0.31 0.45 0.52 0.53 0.45 0.43 0.51 0.58 0.53 0.34 0.36 0.26 0.24 0.39 0.30 0.28 0.30 0.28 0.26 0.27 0.28 0.28 0.26 0.19 0.18
0.45 0.46 0.48 0.49 0.56 0.52 0.50 0.42 0.40 0.57 0.84 0.92 1.07 1.14 1.47 1.03 0.94 0.76 0.57 0.43 0.36 0.33 0.29 0.25 0.24 0.23 0.21 0.18 0.18 0.18 0.18 0.19 0.19 0.19 0.21 0.20 0.20 0.20 0.20 0.20 0.19 0.25 0.39 0.44 0.35 0.33 0.31 0.27 0.24 0.21 0.19 0.20 0.28 0.41 0.43 0.36 0.33 0.29 0.31 0.35 0.35 0.36 0.33
0.38 0.38 0.39 0.37 0.40 0.45 0.44 0.34 0.39 0.63 0.84 0.94 1.15 1.34 1.25 1.16 0.87 0.69 0.59 0.48 0.41 0.35 0.31 0.27 0.28 0.28 0.26 0.22 0.19 0.18 0.37 0.28 0.25 0.29 0.30 0.27 0.21 0.18 0.16 0.15 0.14 0.21 0.26 0.21 0.32 0.33 0.29 0.24 0.19 0.27 0.29 0.34 0.37 0.35 0.36 0.42 0.48 0.50 0.57 0.61 0.62 0.50 0.33
0.27 0.29 0.33 0.33 0.34 0.36 0.32 0.30 0.34 0.50 0.77 0.85 1.08 1.50 1.55 1.29 0.89 0.67 0.54 0.43 0.38 0.35 0.33 0.30 0.28 0.28 0.29 0.25 0.22 0.18 0.43 0.51 0.52 0.44 0.44 0.42 0.35 0.27 0.23 0.19 0.13 0.32 0.59 0.84 0.93 1.06 0.82 0.71 0.71 0.78 0.98 0.97 0.91 0.65 0.67 0.74 0.81 0.71 0.52 0.56 0.57 0.42 0.27
0.30 0.29 0.30 0.33 0.33 0.33 0.35 0.31 0.30 0.42 0.61 0.74 1.00 1.16 1.13 1.07 0.98 0.72 0.57 0.50 0.41 0.38 0.38 0.31 0.33 0.30 0.29 0.29 0.23 0.30 0.48 0.69 0.68 0.80 0.60 0.45 0.41 0.37 0.32 0.23 0.15 0.13 0.17 0.54 0.87 1.02 1.03 1.11 0.94 0.87 0.87 0.99 0.96 0.87 0.59 0.63 0.76 0.56 0.37 0.42 0.41 0.39 0.24
0.30 0.29 0.29 0.30 0.31 0.33 0.37 0.36 0.32 0.36 0.57 0.80 1.02 1.08 1.07 1.01 0.94 0.82 0.67 0.60 0.54 0.45 0.37 0.31 0.28 0.33 0.37 0.31 0.29 0.52 0.69 1.07 0.84 0.77 0.58 0.38 0.40 0.44 0.40 0.28 0.18 0.16 0.18 0.19 0.24 0.31 0.38 0.43 0.58 0.52 0.52 0.42 0.52 0.60 0.71 0.53 0.47 0.45 0.48 0.48 0.39 0.34 0.32
0.25 0.26 0.28 0.31 0.37 0.38 0.38 0.37 0.36 0.39 0.52 0.78 0.83 1.03 0.93 0.80 0.78 0.80 0.73 0.68 0.60 0.62 0.54 0.42 0.37 0.32 0.35 0.61 0.78 0.65 0.95 1.08 1.48 0.83 0.78 0.60 0.59 0.52 0.36 0.18 0.15 0.20 0.23 0.23 0.23 0.22 0.20 0.25 0.30 0.35 0.45 0.46 0.42 0.36 0.42 0.62 0.44 0.44 0.47 0.45 0.40 0.32 0.29
0.27 0.31 0.35 0.34 0.35 0.38 0.38 0.38 0.37 0.32 0.45 0.62 0.66 0.82 1.10 0.83 0.74 0.65 0.65 0.67 0.68 0.59 0.51 0.46 0.41 0.37 0.33 0.42 0.62 0.73 0.85 1.01 1.26 1.11 0.77 0.76 0.65 0.38 0.26 0.33 0.41 0.36 0.28 0.31 0.26 0.23 0.22 0.23 0.27 0.35 0.40 0.44 0.40 0.39 0.37 0.48 0.35 0.39 0.32 0.40 0.45 0.39 0.33
0.36 0.34 0.28 0.25 0.29 0.33 0.34 0.33 0.32 0.36 0.40 0.42 0.59 0.82 1.07 0.91 0.77 0.63 0.70 0.76 0.61 0.48 0.40 0.36 0.36 0.37 0.38 0.40 0.54 0.77 1.10 1.08 1.20 1.36 0.97 0.79 0.75 0.78 0.76 0.46 0.38 0.33 0.36 0.31 0.30 0.28 0.26 0.27 0.28 0.29 0.32 0.39 0.40 0.36 0.49 0.39 0.32 0.27 0.25 0.23 0.25 0.32 0.34
0.35 0.30 0.28 0.27 0.31 0.32 0.31 0.30 0.30 0.40 0.34 0.34 0.51 0.70 0.90 0.94 0.93 0.92 0.71 0.66 0.57 0.44 0.36 0.32 0.34 0.33 0.36 0.44 0.80 1.04 1.20 1.25 1.50 1.27 1.16 1.22 1.11 0.97 0.80 0.73 0.68 0.55 0.47 0.40 0.33 0.31 0.34 0.31 0.26 0.29 0.27 0.25 0.33 0.31 0.25 0.27 0.27 0.27 0.27 0.29 0.23 0.20 0.21
0.34 0.26 0.27 0.30 0.31 0.31 0.29 0.29 0.34 0.35 0.30 0.32 0.37 0.55 0.79 0.88 0.92 0.88 0.68 0.61 0.50 0.42 0.39 0.36 0.32 0.31 0.42 0.74 0.76 0.85 1.07 1.31 1.19 1.14 1.28 1.43 1.25 0.85 0.81 0.79 0.78 0.70 0.60 0.49 0.40 0.37 0.31 0.28 0.21 0.21 0.20 0.21 0.18 0.27 0.30 0.28 0.28 0.25 0.27 0.27 0.22 0.19 0.18
0.26 0.28 0.29 0.29 0.31 0.34 0.33 0.33 0.34 0.30 0.30 0.31 0.34 0.40 0.57 0.66 0.77 0.66 0.61 0.55 0.44 0.40 0.38 0.36 0.46 0.59 0.66 0.72 0.77 0.77 0.71 0.81 0.77 0.78 0.98 0.90 0.89 0.93 0.89 0.95 0.82 0.64 0.51 0.55 0.53 0.41 0.29 0.21 0.18 0.17 0.17 0.17 0.20 0.23 0.33 0.37 0.34 0.31 0.26 0.26 0.25 0.24 0.17
0.30 0.28 0.27 0.29 0.29 0.33 0.36 0.39 0.33 0.28 0.30 0.34 0.35 0.37 0.46 0.55 0.49 0.50 0.46 0.51 0.45 0.36 0.33 0.34 0.43 0.37 0.38 0.43 0.51 0.61 0.72 0.92 0.68 0.61 0.60 0.72 0.84 0.79 0.87 0.90 0.78 0.59 0.53 0.47 0.34 0.29 0.27 0.23 0.19 0.22 0.24 0.20 0.22 0.28 0.32 0.37 0.39 0.43 0.36 0.32 0.34 0.33 0.31
0.32 0.31 0.33 0.35 0.34 0.37 0.37 0.39 0.31 0.29 0.32 0.40 0.45 0.45 0.47 0.51 0.47 0.50 0.42 0.41 0.48 0.44 0.37 0.36 0.38 0.39 0.41 0.41 0.45 0.54 0.62 0.58 0.49 0.52 0.70 0.60 0.56 0.76 0.85 1.08 0.75 0.55 0.50 0.40 0.32 0.27 0.20 0.19 0.26 0.25 0.33 0.36 0.33 0.33 0.30 0.31 0.32 0.39 0.38 0.33 0.31 0.30 0.29
0.48 0.50 0.54 0.57 0.50 0.50 0.44 0.37 0.31 0.32 0.42 0.53 0.54 0.56 0.52 0.49 0.48 0.55 0.55 0.41 0.41 0.43 0.39 0.41 0.43 0.46 0.45 0.55 0.59 0.60 0.59 0.56 0.53 0.45 0.41 0.42 0.49 0.57 0.64 0.74 0.73 0.68 0.65 0.50 0.48 0.49 0.38 0.37 0.36 0.38 0.36 0.34 0.33 0.27 0.25 0.27 0.34 0.34 0.41 0.44 0.40 0.46 0.40
0.86 0.77 0.80 0.67 0.66 0.73 0.63 0.50 0.50 0.48 0.53 0.56 0.57 0.61 0.60 0.61 0.57 0.53 0.51 0.41 0.42 0.46 0.46 0.43 0.44 0.45 0.45 0.43 0.44 0.46 0.47 0.44 0.40 0.37 0.38 0.44 0.48 0.45 0.47 0.49 0.63 0.69 0.59 0.46 0.49 0.56 0.54 0.54 0.51 0.43 0.35 0.35 0.36 0.29 0.25 0.26 0.34 0.37 0.37 0.44 0.52 0.54 0.43
1.05 1.02 1.00 0.87 0.68 0.70 0.80 0.72 0.60 0.57 0.73 0.73 0.75 0.84 0.70 0.64 0.71 0.66 0.55 0.47 0.44 0.42 0.42 0.38 0.35 0.35 0.35 0.34 0.32 0.34 0.34 0.33 0.33 0.33 0.34 0.37 0.42 0.40 0.42 0.43 0.48 0.52 0.48 0.44 0.52 0.49 0.53 0.49 0.46 0.40 0.37 0.36 0.35 0.34 0.28 0.27 0.35 0.41 0.43 0.49 0.58 0.57 0.49
0.93 1.01 0.85 0.80 0.86 0.75 0.54 0.51 0.47 0.49 0.66 0.71 0.85 0.84 0.75 0.73 0.74 0.63 0.56 0.46 0.43 0.40 0.35 0.33 0.29 0.31 0.30 0.28 0.28 0.29 0.29 0.30 0.30 0.29 0.29 0.32 0.34 0.34 0.37 0.41 0.42 0.47 0.46 0.46 0.48 0.51 0.55 0.50 0.47 0.41 0.34 0.33 0.30 0.30 0.33 0.39 0.43 0.40 0.46 0.49 0.48 0.47 0.43
0.76 0.86 0.94 0.76 0.80 0.90 0.69 0.57 0.54 0.52 0.68 0.79 0.87 0.85 0.75 0.73 0.81 0.77 0.65 0.46 0.36 0.31 0.30 0.29 0.27 0.28 0.28 0.26 0.26 0.25 0.25 0.28 0.31 0.32 0.32 0.30 0.27 0.25 0.25 0.29 0.36 0.42 0.44 0.45 0.47 0.47 0.50 0.54 0.53 0.48 0.40 0.34 0.29 0.28 0.30 0.37 0.47 0.52 0.62 0.57 0.49 0.43 0.39
0.53 0.58 0.68 0.70 0.83 0.89 0.83 0.66 0.62 0.63 0.71 0.76 0.84 0.80 0.67 0.67 0.70 0.62 0.59 0.50 0.36 0.30 0.30 0.28 0.26 0.26 0.27 0.26 0.25 0.26 0.27 0.30 0.34 0.29 0.27 0.27 0.27 0.25 0.23 0.23 0.25 0.31 0.37 0.40 0.43 0.44 0.46 0.56 0.49 0.52 0.49 0.46 0.38 0.34 0.31 0.28 0.30 0.34 0.37 0.46 0.51 0.46 0.41
0.41 0.37 0.40 0.43 0.56 0.68 0.70 0.60 0.57 0.59 0.60 0.63 0.69 0.72 0.72 0.74 0.66 0.59 0.60 0.43 0.35 0.30 0.30 0.29 0.29 0.29 0.29 0.29 0.29 0.29 0.28 0.29 0.31 0.26 0.24 0.21 0.20 0.22 0.21 0.19 0.21 0.25 0.30 0.32 0.36 0.39 0.38 0.40 0.43 0.51 0.51 0.54 0.47 0.40 0.33 0.32 0.29 0.28 0.34 0.40 0.38 0.36 0.37
0.32 0.29 0.33 0.42 0.45 0.56 0.60 0.50 0.47 0.53 0.62 0.70 0.71 0.70 0.78 0.60 0.56 0.61 0.50 0.36 0.29 0.28 0.28 0.28 0.28 0.28 0.27 0.26 0.26 0.28 0.28 0.27 0.28 0.24 0.22 0.21 0.19 0.17 0.18 0.21 0.20 0.20 0.22 0.24 0.27 0.30 0.33 0.34 0.39 0.43 0.44 0.44 0.44 0.43 0.42 0.36 0.33 0.33 0.32 0.32 0.35 0.31 0.29
0.35 0.31 0.29 0.38 0.37 0.42 0.56 0.55 0.49 0.51 0.65 0.78 0.77 0.76 0.63 0.50 0.43 0.37 0.37 0.33 0.31 0.31 0.31 0.29 0.30 0.29 0.29 0.31 0.31 0.32 0.30 0.29 0.29 0.28 0.27 0.25 0.22 0.19 0.19 0.20 0.21 0.21 0.20 0.19 0.21 0.24 0.26 0.30 0.34 0.38 0.43 0.43 0.39 0.36 0.34 0.32 0.29 0.28 0.30 0.29 0.29 0.33 0.30

ECMWFFLT1_prec_precacc_114.txt.gz
Total_Precipitation_Accumulation
0.05 0.06 0.07 0.08 0.08 0.07 0.12 0.08 0.10 0.06 0.07 0.09 0.07 0.08 0.07 0.07 0.07 0.06 0.06 0.07 0.07 0.08 0.13 0.15 0.15 0.15 0.14 0.16 0.21 0.21 0.18 0.18 0.16 0.17 0.18 0.18 0.20 0.23 0.23 0.23 0.37 0.34 0.22 0.07 0.02 0.01 0.01 0.00 0.02 0.03 0.06 0.09 0.15 0.16 0.15 0.06 0.04 0.06 0.04 0.07 0.09 0.13 0.10
0.07 0.07 0.08 0.09 0.09 0.08 0.08 0.13 0.10 0.07 0.08 0.07 0.06 0.07 0.08 0.09 0.12 0.07 0.08 0.06 0.06 0.06 0.07 0.12 0.14 0.11 0.10 0.12 0.19 0.23 0.23 0.22 0.20 0.23 0.22 0.19 0.19 0.21 0.21 0.18 0.23 0.28 0.24 0.16 0.05 0.02 0.01 0.01 0.01 0.03 0.04 0.07 0.09 0.13 0.17 0.15 0.10 0.07 0.08 0.07 0.11 0.14 0.10
0.11 0.11 0.11 0.11 0.09 0.09 0.11 0.12 0.13 0.10 0.13 0.14 0.13 0.10 0.08 0.07 0.07 0.06 0.06 0.06 0.05 0.05 0.06 0.08 0.11 0.12 0.12 0.12 0.21 0.22 0.24 0.24 0.25 0.24 0.22 0.22 0.16 0.15 0.12 0.14 0.19 0.24 0.23 0.17 0.12 0.05 0.03 0.02 0.02 0.03 0.04 0.05 0.09 0.11 0.09 0.15 0.18 0.15 0.14 0.11 0.11 0.11 0.09
0.09 0.10 0.10 0.11 0.11 0.15 0.10 0.11 0.09 0.11 0.14 0.15 0.12 0.14 0.16 0.12 0.09 0.08 0.09 0.10 0.07 0.06 0.06 0.07 0.10 0.11 0.12 0.17 0.19 0.20 0.21 0.23 0.24 0.24 0.24 0.22 0.19 0.18 0.13 0.09 0.10 0.15 0.20 0.18 0.17 0.09 0.06 0.03 0.03 0.03 0.04 0.05 0.06 0.10 0.14 0.15 0.22 0.23 0.21 0.17 0.17 0.09 0.10
0.09 0.10 0.11 0.11 0.09 0.08 0.07 0.08 0.07 0.08 0.08 0.08 0.09 0.11 0.12 0.12 0.12 0.12 0.12 0.11 0.11 0.12 0.11 0.10 0.08 0.08 0.09 0.11 0.17 0.19 0.22 0.23 0.25 0.27 0.26 0.24 0.18 0.18 0.15 0.13 0.14 0.16 0.18 0.27 0.21 0.15 0.08 0.04 0.04 0.04 0.05 0.05 0.08 0.10 0.15 0.18 0.21 0.23 0.27 0.25 0.21 0.16 0.11
0.12 0.13 0.11 0.10 0.10 0.09 0.12 0.09 0.09 0.09 0.11 0.08 0.07 0.07 0.08 0.09 0.09 0.10 0.11 0.12 0.13 0.12 0.13 0.13 0.12 0.11 0.12 0.13 0.15 0.16 0.14 0.20 0.26 0.29 0.25 0.24 0.26 0.26 0.21 0.19 0.18 0.17 0.21 0.23 0.22 0.19 0.13 0.08 0.07 0.07 0.07 0.07 0.08 0.10 0.13 0.21 0.23 0.22 0.27 0.29 0.29 0.28 0.21
0.14 0.14 0.13 0.13 0.12 0.12 0.11 0.11 0.10 0.09 0.09 0.08 0.09 0.09 0.09 0.09 0.09 0.08 0.09 0.09 0.10 0.10 0.11 0.12 0.13 0.13 0.12 0.13 0.13 0.14 0.14 0.15 0.15 0.23 0.26 0.27 0.28 0.26 0.29 0.35 0.36 0.31 0.24 0.22 0.24 0.26 0.15 0.12 0.14 0.08 0.11 0.07 0.06 0.08 0.09 0.13 0.20 0.26 0.24 0.26 0.27 0.27 0.24
0.17 0.16 0.15 0.16 0.15 0.14 0.12 0.13 0.12 0.11 0.10 0.09 0.09 0.09 0.11 0.10 0.12 0.13 0.12 0.10 0.09 0.09 0.10 0.11 0.12 0.13 0.12 0.12 0.11 0.12 0.11 0.12 0.15 0.19 0.24 0.22 0.24 0.28 0.37 0.40 0.39 0.37 0.36 0.36 0.35 0.29 0.23 0.17 0.12 0.10 0.07 0.10 0.13 0.15 0.15 0.12 0.13 0.19 0.21 0.25 0.28 0.26 0.25
0.21 0.20 0.21 0.17 0.17 0.18 0.15 0.16 0.14 0.12 0.13 0.13 0.12 0.14 0.17 0.16 0.17 0.16 0.16 0.15 0.14 0.13 0.12 0.11 0.11 0.11 0.14 0.11 0.10 0.10 0.11 0.12 0.14 0.18 0.21 0.21 0.24 0.30 0.37 0.39 0.39 0.42 0.45 0.43 0.39 0.36 0.24 0.21 0.15 0.13 0.12 0.12 0.14 0.16 0.15 0.12 0.11 0.16 0.17 0.18 0.20 0.23 0.27
0.22 0.24 0.33 0.22 0.20 0.19 0.21 0.19 0.16 0.14 0.15 0.19 0.27 0.33 0.33 0.33 0.31 0.29 0.28 0.26 0.23 0.19 0.16 0.14 0.13 0.11 0.09 0.10 0.11 0.12 0.13 0.16 0.19 0.20 0.22 0.26 0.28 0.31 0.39 0.43 0.47 0.46 0.41 0.42 0.48 0.39 0.30 0.31 0.22 0.15 0.11 0.10 0.09 0.07 0.06 0.07 0.08 0.09 0.09 0.10 0.17 0.19 0.24
0.31 0.29 0.29 0.28 0.28 0.31 0.27 0.25 0.20 0.17 0.24 0.43 0.59 0.55 0.53 0.47 0.40 0.34 0.32 0.30 0.27 0.24 0.19 0.15 0.13 0.12 0.11 0.12 0.12 0.14 0.16 0.19 0.20 0.26 0.30 0.27 0.26 0.33 0.42 0.50 0.54 0.48 0.41 0.43 0.41 0.38 0.31 0.26 0.20 0.12 0.12 0.11 0.09 0.07 0.07 0.09 0.09 0.09 0.10 0.14 0.18 0.24 0.22
0.38 0.31 0.29 0.29 0.29 0.31 0.28 0.29 0.23 0.26 0.43 0.54 0.73 0.89 0.69 0.64 0.54 0.44 0.38 0.33 0.30 0.25 0.22 0.19 0.16 0.14 0.13 0.13 0.12 0.12 0.13 0.15 0.20 0.24 0.25 0.29 0.35 0.43 0.55 0.66 0.56 0.56 0.53 0.44 0.45 0.44 0.36 0.34 0.24 0.12 0.10 0.09 0.11 0.12 0.11 0.12 0.13 0.15 0.17 0.18 0.18 0.16 0.17
0.35 0.34 0.34 0.34 0.38 0.32 0.30 0.29 0.25 0.32 0.50 0.60 0.85 1.02 1.02 0.82 0.63 0.50 0.39 0.32 0.28 0.25 0.22 0.20 0.22 0.19 0.17 0.14 0.13 0.15 0.15 0.17 0.17 0.20 0.24 0.28 0.31 0.35 0.51 0.70 0.90 0.77 0.56 0.62 0.60 0.57 0.45 0.31 0.27 0.30 0.17 0.09 0.10 0.17 0.20 0.17 0.19 0.21 0.22 0.21 0.19 0.15 0.13
0.41 0.39 0.43 0.43 0.43 0.40 0.38 0.35 0.32 0.38 0.64 0.83 1.00 1.17 1.24 0.87 0.74 0.59 0.48 0.38 0.31 0.27 0.24 0.23 0.24 0.25 0.23 0.18 0.17 0.19 0.19 0.18 0.18 0.18 0.19 0.22 0.28 0.30 0.31 0.46 0.53 0.53 0.46 0.46 0.54 0.62 0.55 0.35 0.37 0.26 0.24 0.39 0.30 0.28 0.30 0.28 0.26 0.27 0.28 0.28 0.26 0.19 0.18
0.45 0.46 0.48 0.49 0.56 0.52 0.50 0.42 0.40 0.57 0.84 0.92 1.07 1.15 1.49 1.04 0.95 0.77 0.58 0.44 0.37 0.34 0.30 0.26 0.25 0.24 0.22 0.19 0.19 0.19 0.18 0.19 0.19 0.19 0.21 0.21 0.21 0.20 0.20 0.20 0.19 0.25 0.39 0.44 0.35 0.34 0.32 0.28 0.24 0.22 0.20 0.21 0.28 0.41 0.43 0.36 0.33 0.29 0.32 0.35 0.35 0.37 0.33
0.38 0.38 0.39 0.37 0.40 0.45 0.44 0.34 0.39 0.63 0.84 0.94 1.15 1.35 1.26 1.16 0.88 0.70 0.59 0.48 0.41 0.36 0.32 0.28 0.28 0.28 0.26 0.22 0.20 0.18 0.37 0.28 0.25 0.29 0.30 0.27 0.22 0.18 0.16 0.15 0.14 0.21 0.27 0.22 0.32 0.33 0.29 0.24 0.19 0.27 0.29 0.34 0.37 0.35 0.36 0.43 0.48 0.51 0.58 0.62 0.63 0.51 0.33
0.27 0.29 0.33 0.33 0.34 0.36 0.32 0.30 0.34 0.50 0.77 0.85 1.08 1.50 1.55 1.30 0.90 0.68 0.54 0.44 0.39 0.36 0.33 0.30 0.28 0.28 0.29 0.25 0.22 0.18 0.43 0.53 0.53 0.46 0.45 0.43 0.35 0.27 0.23 0.19 0.13 0.33 0.61 0.86 0.97 1.10 0.86 0.75 0.75 0.85 1.03 1.03 0.99 0.67 0.70 0.78 0.86 0.75 0.54 0.57 0.58 0.43 0.27
0.30 0.29 0.30 0.33 0.33 0.33 0.35 0.31 0.30 0.42 0.61 0.74 1.00 1.16 1.13 1.08 0.99 0.73 0.58 0.50 0.42 0.39 0.38 0.32 0.34 0.30 0.29 0.29 0.23 0.30 0.49 0.71 0.70 0.81 0.61 0.47 0.43 0.38 0.33 0.23 0.15 0.13 0.17 0.55 0.91 1.06 1.07 1.18 0.98 0.92 0.92 1.04 1.01 0.90 0.62 0.68 0.80 0.58 0.39 0.44 0.42 0.40 0.25
0.30 0.29 0.29 0.30 0.31 0.33 0.37 0.36 0.32 0.36 0.57 0.80 1.02 1.08 1.07 1.02 0.94 0.83 0.67 0.61 0.55 0.46 0.37 0.31 0.28 0.33 0.37 0.31 0.29 0.52 0.69 1.09 0.85 0.78 0.59 0.39 0.41 0.45 0.41 0.28 0.18 0.16 0.18 0.19 0.24 0.31 0.38 0.43 0.58 0.52 0.53 0.42 0.52 0.61 0.71 0.53 0.47 0.45 0.48 0.48 0.40 0.34 0.32
0.25 0.26 0.28 0.31 0.37 0.38 0.38 0.37 0.36 0.39 0.52 0.78 0.84 1.03 0.94 0.81 0.79 0.81 0.74 0.68 0.61 0.62 0.55 0.42 0.37 0.32 0.35 0.61 0.79 0.67 0.99 1.12 1.51 0.86 0.79 0.61 0.60 0.53 0.36 0.19 0.15 0.20 0.23 0.23 0.23 0.22 0.20 0.25 0.30 0.35 0.45 0.46 0.42 0.36 0.42 0.62 0.44 0.44 0.47 0.46 0.40 0.32 0.29
0.27 0.31 0.35 0.34 0.35 0.38 0.38 0.38 0.37 0.32 0.45 0.62 0.67 0.83 1.11 0.84 0.75 0.66 0.66 0.68 0.69 0.59 0.52 0.47 0.41 0.38 0.34 0.42 0.63 0.74 0.88 1.04 1.30 1.15 0.79 0.77 0.66 0.39 0.26 0.33 0.41 0.37 0.29 0.31 0.27 0.23 0.22 0.23 0.27 0.35 0.40 0.44 0.40 0.39 0.37 0.48 0.35 0.39 0.32 0.40 0.45 0.39 0.33
0.36 0.34 0.28 0.25 0.29 0.33 0.34 0.33 0.32 0.36 0.40 0.42 0.60 0.82 1.08 0.92 0.78 0.64 0.71 0.77 0.62 0.48 0.41 0.36 0.36 0.37 0.38 0.40 0.54 0.78 1.13 1.11 1.25 1.38 1.00 0.80 0.82 0.87 0.83 0.50 0.42 0.37 0.38 0.33 0.31 0.29 0.27 0.27 0.28 0.29 0.32 0.39 0.40 0.36 0.49 0.39 0.32 0.27 0.25 0.23 0.25 0.32 0.34
0.35 0.30 0.28 0.27 0.31 0.32 0.31 0.30 0.30 0.40 0.34 0.34 0.51 0.70 0.90 0.95 0.94 0.93 0.72 0.68 0.59 0.45 0.37 0.33 0.34 0.34 0.36 0.44 0.80 1.06 1.24 1.28 1.53 1.29 1.18 1.25 1.13 1.02 0.83 0.75 0.70 0.56 0.48 0.41 0.34 0.31 0.35 0.31 0.26 0.29 0.27 0.25 0.33 0.31 0.25 0.27 0.27 0.27 0.27 0.29 0.23 0.20 0.21
0.34 0.26 0.27 0.30 0.31 0.31 0.29 0.29 0.34 0.35 0.30 0.32 0.37 0.55 0.80 0.89 0.93 0.89 0.69 0.62 0.51 0.43 0.40 0.37 0.33 0.32 0.42 0.75 0.78 0.89 1.11 1.35 1.21 1.16 1.31 1.45 1.28 0.87 0.82 0.79 0.79 0.71 0.60 0.50 0.41 0.37 0.31 0.28 0.21 0.21 0.20 0.21 0.18 0.27 0.30 0.28 0.28 0.25 0.27 0.27 0.22 0.19 0.18
0.26 0.28 0.29 0.29 0.31 0.34 0.33 0.33 0.34 0.30 0.30 0.31 0.34 0.40 0.57 0.66 0.77 0.67 0.62 0.56 0.45 0.41 0.39 0.37 0.47 0.60 0.69 0.76 0.81 0.79 0.75 0.83 0.78 0.79 0.99 0.90 0.89 0.93 0.89 0.95 0.83 0.64 0.52 0.56 0.54 0.41 0.29 0.21 0.18 0.17 0.17 0.17 0.20 0.23 0.33 0.37 0.34 0.31 0.26 0.26 0.25 0.24 0.17
0.30 0.28 0.27 0.29 0.29 0.33 0.36 0.39 0.33 0.28 0.30 0.34 0.35 0.37 0.46 0.55 0.49 0.50 0.46 0.51 0.46 0.37 0.33 0.35 0.44 0.38 0.38 0.44 0.52 0.61 0.72 0.92 0.68 0.61 0.60 0.72 0.84 0.79 0.87 0.90 0.78 0.59 0.53 0.47 0.34 0.29 0.27 0.23 0.19 0.22 0.24 0.20 0.22 0.28 0.32 0.37 0.39 0.43 0.36 0.32 0.34 0.33 0.31
0.32 0.31 0.33 0.35 0.34 0.37 0.37 0.39 0.31 0.29 0.32 0.40 0.45 0.45 0.47 0.51 0.47 0.50 0.42 0.41 0.48 0.44 0.37 0.36 0.38 0.39 0.41 0.41 0.45 0.54 0.62 0.58 0.49 0.52 0.70 0.60 0.56 0.76 0.85 1.08 0.75 0.55 0.50 0.40 0.32 0.27 0.20 0.19 0.26 0.25 0.33 0.36 0.33 0.33 0.30 0.31 0.32 0.39 0.38 0.33 0.31 0.30 0.29
0.48 0.50 0.54 0.57 0.50 0.50 0.44 0.37 0.31 0.32 0.42 0.53 0.54 0.56 0.52 0.49 0.48 0.55 0.55 0.41 0.41 0.43 0.39 0.41 0.43 0.46 0.45 0.55 0.59 0.60 0.59 0.56 0.53 0.45 0.41 0.42 0.49 0.57 0.64 0.74 0.73 0.68 0.66 0.50 0.48 0.49 0.38 0.38 0.36 0.38 0.36 0.34 0.33 0.27 0.25 0.27 0.34 0.34 0.41 0.44 0.40 0.46 0.40
0.86 0.77 0.80 0.67 0.66 0.73 0.63 0.50 0.50 0.48 0.53 0.56 0.57 0.61 0.60 0.61 0.57 0.53 0.51 0.41 0.42 0.46 0.46 0.43 0.44 0.45 0.45 0.43 0.44 0.46 0.47 0.44 0.41 0.37 0.38 0.44 0.48 0.45 0.47 0.49 0.63 0.69 0.59 0.46 0.49 0.57 0.54 0.54 0.51 0.43 0.35 0.35 0.36 0.29 0.25 0.26 0.34 0.37 0.37 0.44 0.52 0.54 0.43
1.05 1.02 1.00 0.87 0.68 0.70 0.80 0.72 0.60 0.57 0.73 0.74 0.76 0.86 0.71 0.65 0.72 0.67 0.56 0.48 0.44 0.42 0.42 0.39 0.35 0.36 0.35 0.34 0.32 0.34 0.34 0.33 0.33 0.33 0.34 0.37 0.42 0.40 0.42 0.43 0.48 0.52 0.48 0.44 0.52 0.49 0.53 0.49 0.46 0.40 0.37 0.36 0.35 0.34 0.28 0.27 0.35 0.41 0.43 0.49 0.58 0.57 0.49
0.93 1.01 0.86 0.81 0.87 0.76 0.55 0.52 0.48 0.49 0.67 0.72 0.86 0.87 0.79 0.77 0.75 0.66 0.60 0.50 0.48 0.44 0.38 0.35 0.30 0.32 0.30 0.29 0.28 0.29 0.29 0.30 0.30 0.29 0.29 0.32 0.34 0.34 0.37 0.41 0.42 0.47 0.46 0.46 0.48 0.51 0.55 0.50 0.47 0.41 0.34 0.33 0.30 0.30 0.33 0.39 0.43 0.40 0.46 0.49 0.48 0.47 0.43
0.77 0.87 0.97 0.79 0.84 0.94 0.73 0.60 0.56 0.54 0.71 0.82 0.92 0.88 0.79 0.77 0.85 0.81 0.68 0.47 0.38 0.33 0.31 0.30 0.27 0.29 0.28 0.26 0.26 0.25 0.25 0.28 0.31 0.32 0.32 0.30 0.27 0.25 0.26 0.29 0.36 0.42 0.44 0.45 0.47 0.47 0.50 0.54 0.53 0.48 0.40 0.34 0.29 0.28 0.30 0.37 0.47 0.52 0.62 0.57 0.49 0.43 0.39
0.53 0.59 0.69 0.71 0.85 0.91 0.85 0.68 0.63 0.64 0.73 0.79 0.86 0.83 0.68 0.68 0.71 0.63 0.59 0.50 0.37 0.30 0.30 0.28 0.27 0.27 0.27 0.26 0.25 0.26 0.27 0.30 0.34 0.29 0.28 0.27 0.27 0.25 0.23 0.23 0.25 0.31 0.37 0.40 0.43 0.44 0.46 0.56 0.49 0.52 0.49 0.46 0.38 0.34 0.31 0.28 0.30 0.34 0.37 0.46 0.51 0.46 0.41
0.41 0.37 0.40 0.43 0.56 0.68 0.70 0.60 0.57 0.59 0.60 0.63 0.70 0.72 0.73 0.74 0.66 0.59 0.61 0.43 0.36 0.32 0.31 0.30 0.30 0.29 0.29 0.29 0.29 0.29 0.28 0.30 0.31 0.26 0.24 0.21 0.20 0.22 0.21 0.19 0.21 0.25 0.30 0.32 0.36 0.39 0.38 0.40 0.43 0.51 0.51 0.54 0.47 0.40 0.33 0.32 0.29 0.28 0.34 0.40 0.38 0.36 0.37
0.32 0.29 0.33 0.42 0.45 0.56 0.60 0.50 0.47 0.53 0.62 0.70 0.71 0.70 0.79 0.60 0.56 0.62 0.51 0.37 0.29 0.29 0.28 0.28 0.28 0.28 0.27 0.26 0.26 0.28 0.28 0.27 0.28 0.25 0.23 0.21 0.19 0.17 0.18 0.21 0.20 0.20 0.22 0.24 0.27 0.30 0.33 0.34 0.39 0.43 0.44 0.44 0.44 0.43 0.42 0.36 0.33 0.33 0.32 0.32 0.35 0.31 0.29
0.35 0.31 0.29 0.38 0.37 0.42 0.56 0.55 0.49 0.51 0.65 0.78 0.77 0.77 0.65 0.53 0.44 0.38 0.37 0.33 0.31 0.31 0.31 0.29 0.30 0.29 0.29 0.31 0.31 0.32 0.30 0.29 0.29 0.29 0.27 0.25 0.22 0.19 0.19 0.20 0.21 0.21 0.20 0.19 0.21 0.24 0.26 0.30 0.34 0.38 0.43 0.43 0.39 0.36 0.34 0.32 0.29 0.28 0.30 0.29 0.29 0.33 0.30

ECMWFFLT1_prec_precacc_117.txt.gz
Total_Precipitation_Accumulation
0.05 0.06 0.07 0.08 0.08 0.07 0.12 0.08 0.11 0.07 0.07 0.09 0.07 0.08 0.07 0.07 0.07 0.06 0.06 0.07 0.07 0.08 0.13 0.15 0.15 0.15 0.14 0.16 0.21 0.21 0.18 0.18 0.16 0.17 0.18 0.18 0.20 0.23 0.23 0.23 0.37 0.34 0.22 0.07 0.02 0.01 0.01 0.00 0.02 0.03 0.06 0.09 0.15 0.16 0.15 0.06 0.04 0.06 0.04 0.07 0.09 0.13 0.10
0.07 0.07 0.08 0.09 0.09 0.08 0.08 0.13 0.11 0.07 0.08 0.07 0.07 0.07 0.08 0.09 0.12 0.07 0.08 0.06 0.06 0.06 0.07 0.12 0.14 0.11 0.10 0.12 0.19 0.23 0.23 0.22 0.20 0.23 0.22 0.19 0.19 0.21 0.21 0.18 0.23 0.28 0.24 0.16 0.05 0.02 0.01 0.01 0.01 0.03 0.04 0.07 0.09 0.13 0.17 0.15 0.10 0.07 0.08 0.07 0.11 0.14 0.10
0.11 0.11 0.11 0.11 0.10 0.10 0.12 0.12 0.14 0.10 0.13 0.15 0.13 0.10 0.08 0.07 0.07 0.06 0.06 0.06 0.05 0.05 0.06 0.08 0.11 0.12 0.12 0.12 0.21 0.22 0.24 0.24 0.25 0.24 0.22 0.22 0.16 0.15 0.12 0.14 0.19 0.24 0.23 0.17 0.12 0.05 0.03 0.02 0.02 0.03 0.04 0.05 0.09 0.11 0.09 0.15 0.18 0.15 0.14 0.11 0.11 0.11 0.09
0.09 0.10 0.10 0.12 0.12 0.16 0.11 0.12 0.10 0.12 0.15 0.15 0.12 0.14 0.16 0.12 0.09 0.08 0.09 0.10 0.07 0.06 0.06 0.07 0.10 0.11 0.12 0.17 0.19 0.20 0.21 0.23 0.24 0.24 0.24 0.22 0.19 0.18 0.13 0.09 0.10 0.15 0.20 0.18 0.17 0.09 0.06 0.03 0.03 0.03 0.04 0.05 0.06 0.10 0.14 0.15 0.22 0.23 0.21 0.17 0.17 0.09 0.10
0.09 0.11 0.12 0.12 0.10 0.09 0.08 0.09 0.08 0.09 0.09 0.09 0.09 0.11 0.12 0.12 0.12 0.12 0.12 0.11 0.11 0.12 0.11 0.10 0.08 0.08 0.09 0.11 0.17 0.19 0.22 0.23 0.25 0.27 0.26 0.24 0.18 0.18 0.15 0.13 0.14 0.16 0.18 0.27 0.21 0.15 0.08 0.04 0.04 0.04 0.05 0.05 0.08 0.10 0.15 0.18 0.21 0.23 0.27 0.25 0.21 0.16 0.11
0.13 0.13 0.12 0.12 0.12 0.11 0.13 0.10 0.09 0.09 0.12 0.08 0.07 0.07 0.08 0.09 0.09 0.10 0.11 0.12 0.13 0.12 0.13 0.13 0.12 0.11 0.12 0.13 0.15 0.16 0.14 0.20 0.26 0.29 0.25 0.24 0.26 0.26 0.21 0.19 0.18 0.17 0.21 0.23 0.22 0.19 0.13 0.08 0.07 0.07 0.07 0.07 0.08 0.10 0.13 0.21 0.23 0.22 0.27 0.29 0.29 0.28 0.21
0.15 0.15 0.14 0.14 0.14 0.13 0.12 0.11 0.10 0.10 0.09 0.08 0.09 0.10 0.09 0.09 0.09 0.08 0.09 0.09 0.10 0.10 0.11 0.12 0.13 0.13 0.12 0.13 0.13 0.14 0.14 0.15 0.15 0.23 0.26 0.27 0.28 0.26 0.29 0.35 0.36 0.31 0.24 0.22 0.24 0.26 0.15 0.12 0.14 0.08 0.11 0.07 0.06 0.08 0.09 0.13 0.20 0.26 0.24 0.26 0.27 0.27 0.24
0.17 0.16 0.16 0.17 0.16 0.15 0.13 0.13 0.12 0.11 0.10 0.10 0.09 0.09 0.11 0.10 0.12 0.13 0.12 0.10 0.09 0.09 0.10 0.11 0.12 0.13 0.12 0.12 0.11 0.12 0.11 0.12 0.15 0.19 0.24 0.22 0.24 0.28 0.37 0.40 0.39 0.37 0.36 0.37 0.35 0.29 0.23 0.17 0.12 0.10 0.07 0.10 0.13 0.15 0.15 0.12 0.13 0.19 0.21 0.25 0.28 0.26 0.25
0.21 0.21 0.22 0.18 0.18 0.18 0.15 0.16 0.15 0.13 0.13 0.13 0.13 0.14 0.17 0.16 0.17 0.16 0.16 0.15 0.14 0.13 0.12 0.11 0.11 0.11 0.14 0.11 0.10 0.10 0.11 0.12 0.14 0.18 0.21 0.21 0.24 0.30 0.37 0.40 0.39 0.42 0.45 0.44 0.40 0.36 0.24 0.21 0.16 0.13 0.12 0.12 0.14 0.16 0.15 0.12 0.11 0.16 0.17 0.18 0.20 0.23 0.27
0.23 0.25 0.33 0.22 0.21 0.20 0.22 0.19 0.17 0.15 0.15 0.19 0.27 0.33 0.33 0.33 0.31 0.29 0.28 0.26 0.23 0.19 0.16 0.14 0.13 0.11 0.09 0.10 0.11 0.12 0.13 0.16 0.19 0.20 0.22 0.26 0.28 0.31 0.39 0.43 0.47 0.46 0.42 0.42 0.48 0.39 0.31 0.31 0.23 0.15 0.11 0.10 0.09 0.07 0.06 0.07 0.08 0.09 0.09 0.10 0.17 0.19 0.24
0.31 0.30 0.29 0.28 0.29 0.31 0.28 0.26 0.20 0.17 0.24 0.43 0.59 0.55 0.53 0.47 0.40 0.34 0.32 0.30 0.27 0.24 0.19 0.15 0.13 0.12 0.11 0.12 0.12 0.14 0.16 0.19 0.20 0.26 0.30 0.27 0.26 0.33 0.42 0.50 0.55 0.49 0.41 0.43 0.41 0.38 0.31 0.26 0.20 0.12 0.12 0.11 0.09 0.07 0.07 0.09 0.09 0.09 0.10 0.14 0.18 0.24 0.22
0.38 0.31 0.29 0.30 0.30 0.31 0.29 0.29 0.23 0.26 0.43 0.54 0.73 0.89 0.69 0.64 0.54 0.44 0.38 0.33 0.30 0.25 0.22 0.19 0.16 0.14 0.13 0.13 0.12 0.12 0.13 0.15 0.20 0.24 0.25 0.29 0.35 0.43 0.55 0.67 0.56 0.56 0.53 0.44 0.45 0.44 0.36 0.34 0.24 0.13 0.10 0.09 0.11 0.12 0.11 0.12 0.13 0.15 0.17 0.18 0.18 0.17 0.17
0.35 0.34 0.35 0.34 0.38 0.33 0.30 0.29 0.25 0.33 0.50 0.60 0.85 1.02 1.02 0.82 0.63 0.50 0.40 0.33 0.29 0.26 0.22 0.20 0.22 0.20 0.18 0.14 0.13 0.15 0.15 0.17 0.17 0.20 0.24 0.28 0.31 0.35 0.51 0.73 0.96 0.80 0.59 0.63 0.61 0.58 0.46 0.31 0.27 0.30 0.18 0.10 0.10 0.17 0.20 0.17 0.19 0.22 0.22 0.21 0.19 0.15 0.13
0.41 0.40 0.44 0.43 0.44 0.40 0.38 0.35 0.32 0.38 0.64 0.83 1.00 1.17 1.24 0.87 0.74 0.60 0.48 0.38 0.32 0.28 0.25 0.23 0.25 0.26 0.23 0.19 0.17 0.19 0.19 0.18 0.18 0.18 0.19 0.22 0.28 0.31 0.32 0.46 0.54 0.54 0.48 0.50 0.58 0.64 0.56 0.35 0.37 0.26 0.24 0.39 0.30 0.28 0.31 0.29 0.26 0.28 0.28 0.28 0.26 0.19 0.18
0.46 0.46 0.48 0.49 0.56 0.52 0.50 0.42 0.40 0.57 0.84 0.92 1.07 1.15 1.49 1.04 0.95 0.77 0.58 0.44 0.37 0.34 0.31 0.27 0.26 0.24 0.22 0.19 0.20 0.20 0.19 0.19 0.19 0.19 0.21 0.21 0.21 0.20 0.20 0.20 0.20 0.25 0.40 0.45 0.36 0.35 0.35 0.30 0.26 0.23 0.20 0.21 0.28 0.41 0.43 0.36 0.33 0.29 0.32 0.35 0.35 0.37 0.33
0.38 0.39 0.39 0.38 0.41 0.45 0.45 0.34 0.39 0.63 0.84 0.94 1.15 1.35 1.26 1.17 0.88 0.70 0.60 0.49 0.42 0.36 0.32 0.28 0.29 0.29 0.27 0.23 0.20 0.19 0.38 0.29 0.25 0.29 0.31 0.27 0.22 0.18 0.16 0.15 0.14 0.22 0.28 0.22 0.32 0.33 0.29 0.24 0.19 0.28 0.30 0.34 0.37 0.35 0.36 0.43 0.48 0.51 0.58 0.63 0.63 0.51 0.34
0.27 0.29 0.33 0.34 0.34 0.36 0.32 0.30 0.34 0.50 0.77 0.85 1.08 1.50 1.55 1.30 0.90 0.68 0.55 0.45 0.39 0.36 0.34 0.30 0.29 0.29 0.29 0.25 0.23 0.18 0.43 0.55 0.55 0.48 0.46 0.43 0.36 0.27 0.23 0.19 0.13 0.34 0.65 0.90 1.04 1.17 0.91 0.79 0.80 0.90 1.08 1.08 1.05 0.70 0.71 0.80 0.88 0.77 0.56 0.59 0.60 0.44 0.28
0.30 0.29 0.30 0.33 0.34 0.33 0.35 0.31 0.30 0.42 0.61 0.74 1.00 1.16 1.13 1.08 0.99 0.73 0.59 0.51 0.43 0.40 0.39 0.32 0.34 0.30 0.29 0.29 0.23 0.30 0.49 0.74 0.70 0.83 0.63 0.49 0.45 0.39 0.33 0.23 0.15 0.13 0.17 0.55 0.94 1.11 1.12 1.23 1.04 0.99 0.98 1.11 1.07 0.95 0.67 0.78 0.92 0.65 0.41 0.46 0.44 0.41 0.25
0.30 0.29 0.29 0.30 0.31 0.33 0.37 0.36 0.32 0.36 0.57 0.80 1.02 1.09 1.07 1.02 0.95 0.84 0.68 0.61 0.55 0.46 0.38 0.31 0.28 0.33 0.38 0.32 0.29 0.52 0.70 1.11 0.86 0.80 0.60 0.40 0.42 0.47 0.42 0.28 0.18 0.16 0.18 0.19 0.24 0.31 0.38 0.43 0.58 0.52 0.53 0.42 0.53 0.61 0.71 0.54 0.49 0.47 0.50 0.50 0.41 0.35 0.34
0.26 0.26 0.28 0.31 0.37 0.38 0.38 0.37 0.36 0.39 0.52 0.78 0.84 1.04 0.94 0.81 0.79 0.81 0.74 0.69 0.61 0.63 0.55 0.43 0.37 0.32 0.35 0.61 0.79 0.70 1.03 1.15 1.54 0.88 0.81 0.62 0.60 0.53 0.37 0.19 0.15 0.20 0.23 0.23 0.23 0.22 0.20 0.25 0.30 0.35 0.45 0.46 0.42 0.36 0.42 0.62 0.44 0.45 0.47 0.46 0.40 0.32 0.29
0.27 0.31 0.35 0.34 0.35 0.38 0.38 0.38 0.37 0.32 0.45 0.62 0.67 0.83 1.11 0.85 0.76 0.67 0.66 0.68 0.69 0.60 0.52 0.47 0.41 0.38 0.34 0.42 0.63 0.74 0.92 1.07 1.34 1.17 0.80 0.79 0.68 0.40 0.27 0.33 0.41 0.37 0.29 0.32 0.27 0.24 0.22 0.23 0.27 0.35 0.40 0.44 0.40 0.39 0.37 0.48 0.35 0.39 0.32 0.40 0.45 0.39 0.33
0.36 0.35 0.28 0.25 0.29 0.33 0.34 0.33 0.32 0.36 0.40 0.42 0.60 0.82 1.08 0.92 0.79 0.65 0.72 0.77 0.62 0.49 0.41 0.36 0.37 0.38 0.38 0.40 0.54 0.78 1.14 1.15 1.27 1.41 1.03 0.81 0.88 0.94 0.88 0.51 0.43 0.38 0.39 0.34 0.32 0.30 0.28 0.28 0.28 0.29 0.32 0.39 0.40 0.36 0.49 0.39 0.32 0.27 0.25 0.23 0.25 0.32 0.34
0.35 0.30 0.28 0.27 0.31 0.32 0.31 0.30 0.30 0.40 0.34 0.34 0.52 0.71 0.90 0.96 0.95 0.93 0.73 0.69 0.60 0.46 0.38 0.33 0.34 0.34 0.37 0.44 0.80 1.06 1.26 1.32 1.56 1.31 1.19 1.27 1.17 1.05 0.87 0.80 0.75 0.59 0.51 0.43 0.36 0.32 0.36 0.31 0.27 0.29 0.27 0.25 0.33 0.31 0.25 0.27 0.27 0.27 0.27 0.29 0.23 0.20 0.21
0.34 0.26 0.27 0.30 0.31 0.31 0.29 0.29 0.34 0.35 0.30 0.32 0.37 0.55 0.80 0.89 0.93 0.91 0.70 0.63 0.52 0.43 0.40 0.37 0.34 0.32 0.43 0.76 0.80 0.93 1.15 1.39 1.24 1.18 1.34 1.47 1.32 0.90 0.83 0.80 0.80 0.72 0.62 0.51 0.42 0.38 0.32 0.28 0.21 0.21 0.20 0.21 0.18 0.27 0.30 0.28 0.28 0.26 0.27 0.27 0.22 0.19 0.18
0.26 0.28 0.29 0.29 0.31 0.34 0.33 0.33 0.34 0.30 0.30 0.31 0.34 0.40 0.57 0.66 0.78 0.67 0.62 0.57 0.46 0.42 0.40 0.38 0.48 0.61 0.71 0.80 0.86 0.83 0.79 0.85 0.80 0.80 1.00 0.92 0.92 0.95 0.90 0.95 0.83 0.64 0.52 0.56 0.54 0.42 0.30 0.21 0.18 0.17 0.17 0.17 0.20 0.23 0.33 0.37 0.34 0.31 0.26 0.27 0.25 0.24 0.17
0.30 0.28 0.27 0.29 0.29 0.33 0.36 0.39 0.33 0.28 0.30 0.34 0.35 0.37 0.46 0.55 0.49 0.50 0.46 0.52 0.46 0.37 0.34 0.35 0.46 0.39 0.39 0.45 0.53 0.62 0.72 0.92 0.68 0.61 0.60 0.72 0.84 0.80 0.88 0.90 0.78 0.59 0.53 0.47 0.34 0.29 0.27 0.23 0.20 0.22 0.24 0.20 0.22 0.28 0.32 0.37 0.39 0.43 0.36 0.32 0.34 0.33 0.31
0.32 0.31 0.33 0.35 0.34 0.37 0.37 0.39 0.31 0.29 0.32 0.40 0.45 0.45 0.47 0.51 0.47 0.50 0.42 0.41 0.49 0.45 0.38 0.36 0.39 0.39 0.41 0.42 0.45 0.54 0.62 0.58 0.49 0.52 0.70 0.60 0.56 0.76 0.85 1.08 0.75 0.55 0.50 0.40 0.32 0.27 0.20 0.19 0.26 0.25 0.33 0.36 0.33 0.33 0.30 0.31 0.32 0.39 0.38 0.33 0.31 0.30 0.29
0.48 0.50 0.54 0.57 0.50 0.50 0.44 0.37 0.31 0.32 0.42 0.53 0.54 0.56 0.52 0.49 0.48 0.55 0.55 0.41 0.41 0.43 0.39 0.41 0.43 0.46 0.45 0.55 0.60 0.60 0.60 0.56 0.53 0.46 0.41 0.42 0.49 0.57 0.64 0.74 0.73 0.68 0.66 0.50 0.48 0.49 0.38 0.38 0.36 0.38 0.36 0.34 0.33 0.27 0.25 0.27 0.34 0.34 0.41 0.44 0.40 0.46 0.40
0.86 0.77 0.80 0.67 0.66 0.73 0.63 0.50 0.50 0.48 0.53 0.56 0.57 0.61 0.60 0.61 0.57 0.53 0.51 0.41 0.42 0.46 0.46 0.43 0.44 0.45 0.45 0.43 0.44 0.46 0.47 0.44 0.41 0.37 0.38 0.44 0.48 0.45 0.47 0.49 0.63 0.69 0.59 0.46 0.49 0.57 0.54 0.54 0.51 0.43 0.35 0.35 0.36 0.29 0.25 0.26 0.34 0.37 0.37 0.44 0.52 0.54 0.43
1.05 1.02 1.00 0.87 0.68 0.70 0.80 0.72 0.60 0.57 0.73 0.74 0.77 0.87 0.73 0.66 0.72 0.67 0.56 0.48 0.44 0.42 0.43 0.39 0.36 0.36 0.36 0.35 0.32 0.34 0.34 0.33 0.33 0.33 0.34 0.37 0.42 0.40 0.42 0.43 0.48 0.52 0.48 0.44 0.52 0.49 0.53 0.49 0.47 0.40 0.37 0.36 0.35 0.34 0.28 0.27 0.35 0.41 0.43 0.49 0.58 0.57 0.49
0.94 1.02 0.86 0.81 0.87 0.76 0.55 0.52 0.48 0.49 0.67 0.72 0.87 0.89 0.82 0.81 0.78 0.69 0.62 0.53 0.50 0.46 0.40 0.36 0.31 0.32 0.30 0.29 0.28 0.29 0.29 0.30 0.30 0.29 0.29 0.32 0.34 0.34 0.37 0.41 0.42 0.47 0.46 0.46 0.48 0.52 0.55 0.50 0.47 0.41 0.35 0.33 0.30 0.30 0.33 0.39 0.43 0.40 0.47 0.49 0.48 0.47 0.43
0.77 0.88 0.98 0.81 0.86 0.97 0.75 0.62 0.58 0.56 0.72 0.85 0.96 0.92 0.83 0.81 0.89 0.84 0.70 0.50 0.43 0.38 0.34 0.32 0.29 0.29 0.28 0.27 0.26 0.25 0.25 0.28 0.32 0.32 0.32 0.30 0.27 0.25 0.26 0.29 0.36 0.42 0.44 0.45 0.47 0.47 0.50 0.54 0.53 0.48 0.40 0.34 0.29 0.28 0.30 0.37 0.47 0.52 0.62 0.57 0.49 0.43 0.39
0.53 0.59 0.70 0.72 0.86 0.93 0.88 0.70 0.65 0.65 0.77 0.83 0.90 0.86 0.71 0.69 0.72 0.63 0.59 0.50 0.37 0.31 0.32 0.30 0.28 0.28 0.28 0.27 0.26 0.27 0.28 0.30 0.34 0.29 0.28 0.27 0.27 0.25 0.23 0.24 0.25 0.31 0.37 0.41 0.43 0.44 0.46 0.56 0.49 0.52 0.49 0.46 0.38 0.34 0.31 0.28 0.30 0.34 0.37 0.46 0.51 0.46 0.41
0.41 0.37 0.40 0.43 0.56 0.68 0.70 0.60 0.57 0.59 0.60 0.63 0.70 0.73 0.73 0.74 0.66 0.59 0.61 0.44 0.36 0.32 0.31 0.30 0.30 0.29 0.30 0.30 0.29 0.30 0.29 0.30 0.32 0.26 0.24 0.22 0.20 0.22 0.22 0.19 0.21 0.26 0.30 0.32 0.36 0.39 0.38 0.40 0.43 0.51 0.51 0.54 0.47 0.40 0.33 0.32 0.29 0.28 0.34 0.41 0.38 0.36 0.37
0.32 0.29 0.33 0.42 0.45 0.56 0.60 0.50 0.47 0.53 0.62 0.70 0.71 0.70 0.79 0.61 0.57 0.62 0.51 0.37 0.30 0.29 0.29 0.29 0.28 0.28 0.27 0.26 0.26 0.28 0.28 0.28 0.28 0.25 0.23 0.21 0.19 0.18 0.18 0.22 0.21 0.20 0.22 0.24 0.27 0.31 0.33 0.34 0.39 0.43 0.44 0.44 0.44 0.43 0.42 0.36 0.33 0.33 0.32 0.32 0.35 0.31 0.29
0.35 0.31 0.29 0.38 0.37 0.42 0.56 0.55 0.49 0.51 0.65 0.78 0.78 0.77 0.66 0.54 0.45 0.39 0.37 0.33 0.31 0.31 0.31 0.30 0.30 0.29 0.29 0.31 0.32 0.32 0.30 0.29 0.29 0.29 0.28 0.25 0.22 0.19 0.19 0.20 0.22 0.21 0.20 0.20 0.21 0.24 0.26 0.30 0.34 0.38 0.43 0.43 0.39 0.36 0.34 0.32 0.29 0.28 0.30 0.29 0.30 0.33 0.31

ECMWFFLT1_prec_precacc_123.txt.gz
Total_Precipitation_Accumulation
0.05 0.06 0.07 0.08 0.08 0.07 0.12 0.08 0.11 0.07 0.07 0.09 0.07 0.08 0.07 0.07 0.07 0.07 0.07 0.08 0.08 0.09 0.14 0.15 0.16 0.15 0.15 0.16 0.22 0.22 0.19 0.19 0.17 0.17 0.18 0.18 0.20 0.23 0.23 0.23 0.37 0.34 0.22 0.07 0.02 0.01 0.01 0.00 0.02 0.03 0.06 0.09 0.15 0.16 0.15 0.06 0.04 0.06 0.04 0.07 0.09 0.13 0.10
0.07 0.07 0.08 0.09 0.09 0.08 0.08 0.13 0.11 0.08 0.08 0.08 0.07 0.08 0.09 0.11 0.13 0.09 0.09 0.08 0.08 0.07 0.09 0.13 0.15 0.13 0.12 0.13 0.21 0.24 0.24 0.23 0.20 0.23 0.22 0.19 0.20 0.21 0.21 0.18 0.23 0.28 0.24 0.16 0.05 0.02 0.01 0.01 0.01 0.03 0.04 0.07 0.09 0.13 0.17 0.15 0.10 0.07 0.08 0.07 0.11 0.14 0.10
0.11 0.11 0.11 0.11 0.10 0.10 0.12 0.13 0.14 0.11 0.14 0.16 0.14 0.12 0.09 0.09 0.09 0.09 0.09 0.08 0.08 0.07 0.08 0.10 0.13 0.14 0.13 0.14 0.22 0.24 0.25 0.24 0.26 0.24 0.22 0.23 0.16 0.15 0.12 0.14 0.19 0.24 0.23 0.17 0.12 0.05 0.03 0.02 0.02 0.03 0.04 0.05 0.09 0.11 0.09 0.15 0.18 0.15 0.14 0.11 0.11 0.11 0.09
0.09 0.10 0.10 0.12 0.12 0.17 0.11 0.12 0.11 0.13 0.16 0.17 0.15 0.17 0.19 0.15 0.12 0.11 0.11 0.12 0.10 0.08 0.08 0.09 0.12 0.13 0.13 0.18 0.21 0.21 0.21 0.24 0.25 0.24 0.25 0.22 0.19 0.18 0.13 0.09 0.10 0.15 0.20 0.18 0.17 0.09 0.06 0.03 0.03 0.03 0.04 0.05 0.06 0.10 0.14 0.15 0.22 0.23 0.21 0.17 0.17 0.09 0.10
0.09 0.11 0.12 0.12 0.10 0.09 0.09 0.10 0.10 0.11 0.11 0.11 0.12 0.15 0.15 0.16 0.16 0.16 0.15 0.14 0.14 0.15 0.14 0.12 0.11 0.10 0.10 0.12 0.19 0.21 0.23 0.24 0.25 0.27 0.27 0.25 0.18 0.18 0.15 0.13 0.14 0.16 0.18 0.27 0.21 0.15 0.08 0.04 0.04 0.04 0.05 0.05 0.08 0.10 0.15 0.18 0.21 0.23 0.27 0.25 0.21 0.16 0.11
0.13 0.13 0.12 0.12 0.12 0.12 0.14 0.12 0.12 0.12 0.15 0.12 0.10 0.11 0.12 0.13 0.13 0.13 0.15 0.16 0.16 0.15 0.15 0.15 0.14 0.12 0.13 0.14 0.16 0.17 0.15 0.20 0.27 0.29 0.25 0.24 0.26 0.26 0.21 0.20 0.18 0.17 0.21 0.23 0.22 0.19 0.13 0.08 0.07 0.07 0.07 0.07 0.08 0.10 0.13 0.21 0.23 0.22 0.27 0.29 0.29 0.28 0.21
0.15 0.15 0.14 0.14 0.14 0.14 0.14 0.14 0.13 0.13 0.12 0.12 0.13 0.14 0.13 0.13 0.13 0.12 0.12 0.12 0.13 0.13 0.13 0.15 0.15 0.14 0.13 0.14 0.14 0.15 0.14 0.15 0.16 0.24 0.26 0.27 0.28 0.26 0.29 0.35 0.36 0.31 0.24 0.22 0.24 0.26 0.15 0.12 0.14 0.08 0.11 0.07 0.06 0.08 0.09 0.13 0.20 0.26 0.24 0.26 0.27 0.27 0.24
0.18 0.17 0.16 0.18 0.18 0.16 0.15 0.16 0.15 0.15 0.14 0.14 0.13 0.14 0.16 0.14 0.17 0.18 0.17 0.14 0.12 0.12 0.12 0.13 0.14 0.14 0.13 0.12 0.12 0.12 0.12 0.12 0.15 0.19 0.24 0.22 0.24 0.28 0.37 0.40 0.39 0.37 0.36 0.37 0.35 0.29 0.23 0.17 0.12 0.10 0.07 0.10 0.13 0.15 0.15 0.12 0.13 0.19 0.21 0.25 0.28 0.26 0.25
0.22 0.21 0.22 0.19 0.19 0.20 0.18 0.19 0.18 0.16 0.17 0.18 0.17 0.19 0.23 0.22 0.23 0.22 0.21 0.19 0.17 0.16 0.14 0.13 0.13 0.12 0.15 0.12 0.11 0.11 0.12 0.12 0.14 0.18 0.21 0.21 0.24 0.30 0.37 0.40 0.39 0.42 0.45 0.44 0.40 0.36 0.24 0.21 0.16 0.13 0.12 0.12 0.14 0.16 0.15 0.12 0.11 0.16 0.17 0.18 0.20 0.23 0.27
0.23 0.26 0.34 0.24 0.22 0.22 0.24 0.22 0.20 0.18 0.19 0.24 0.32 0.39 0.40 0.40 0.37 0.34 0.32 0.30 0.27 0.22 0.18 0.16 0.14 0.12 0.10 0.10 0.12 0.13 0.14 0.16 0.19 0.20 0.22 0.26 0.28 0.31 0.39 0.44 0.47 0.46 0.42 0.43 0.48 0.40 0.31 0.31 0.23 0.15 0.11 0.10 0.09 0.07 0.06 0.07 0.08 0.09 0.09 0.10 0.17 0.19 0.24
0.32 0.31 0.30 0.30 0.31 0.33 0.31 0.29 0.23 0.21 0.28 0.48 0.65 0.62 0.60 0.55 0.46 0.39 0.36 0.33 0.30 0.27 0.21 0.17 0.15 0.13 0.12 0.12 0.13 0.14 0.17 0.19 0.20 0.26 0.30 0.27 0.26 0.33 0.42 0.50 0.55 0.49 0.41 0.43 0.41 0.38 0.31 0.27 0.21 0.12 0.12 0.11 0.09 0.07 0.07 0.09 0.09 0.09 0.10 0.14 0.19 0.24 0.22
0.39 0.32 0.30 0.31 0.32 0.34 0.32 0.33 0.27 0.30 0.49 0.62 0.82 0.97 0.77 0.70 0.59 0.48 0.41 0.36 0.33 0.27 0.23 0.20 0.17 0.15 0.14 0.14 0.13 0.13 0.13 0.15 0.20 0.25 0.25 0.30 0.36 0.43 0.55 0.67 0.57 0.56 0.53 0.44 0.46 0.45 0.36 0.34 0.24 0.13 0.10 0.09 0.11 0.12 0.11 0.12 0.13 0.15 0.17 0.18 0.18 0.17 0.17
0.37 0.36 0.36 0.36 0.41 0.36 0.34 0.34 0.30 0.38 0.57 0.68 0.95 1.11 1.08 0.87 0.68 0.54 0.42 0.35 0.31 0.27 0.24 0.22 0.23 0.21 0.18 0.15 0.13 0.16 0.16 0.17 0.17 0.20 0.24 0.28 0.31 0.35 0.51 0.74 0.99 0.82 0.60 0.63 0.61 0.58 0.46 0.31 0.27 0.30 0.18 0.10 0.10 0.17 0.20 0.17 0.19 0.22 0.22 0.21 0.19 0.16 0.13
0.43 0.42 0.46 0.46 0.48 0.45 0.44 0.41 0.38 0.44 0.70 0.92 1.10 1.27 1.33 0.91 0.77 0.62 0.50 0.40 0.34 0.29 0.26 0.24 0.25 0.27 0.24 0.19 0.18 0.19 0.19 0.18 0.18 0.18 0.19 0.23 0.28 0.31 0.32 0.46 0.54 0.55 0.50 0.54 0.60 0.66 0.57 0.36 0.37 0.26 0.24 0.39 0.30 0.28 0.31 0.29 0.26 0.28 0.28 0.28 0.26 0.19 0.18
0.49 0.50 0.52 0.53 0.61 0.57 0.56 0.47 0.45 0.63 0.90 1.00 1.17 1.24 1.61 1.11 0.97 0.79 0.59 0.46 0.39 0.35 0.32 0.28 0.26 0.25 0.23 0.19 0.20 0.20 0.19 0.19 0.20 0.20 0.21 0.21 0.21 0.20 0.20 0.20 0.20 0.25 0.40 0.45 0.37 0.38 0.38 0.32 0.27 0.23 0.20 0.21 0.28 0.41 0.43 0.36 0.33 0.30 0.32 0.35 0.35 0.37 0.33
0.41 0.42 0.42 0.41 0.45 0.50 0.50 0.39 0.43 0.68 0.91 1.01 1.23 1.46 1.33 1.25 0.93 0.72 0.61 0.50 0.43 0.37 0.33 0.29 0.30 0.30 0.28 0.23 0.21 0.19 0.38 0.29 0.25 0.29 0.31 0.28 0.22 0.18 0.16 0.15 0.14 0.22 0.29 0.22 0.32 0.34 0.29 0.26 0.21 0.31 0.30 0.34 0.37 0.35 0.36 0.43 0.48 0.51 0.58 0.63 0.64 0.52 0.34
0.29 0.31 0.36 0.37 0.37 0.40 0.37 0.34 0.38 0.55 0.83 0.91 1.15 1.57 1.62 1.37 0.95 0.71 0.57 0.46 0.40 0.37 0.35 0.31 0.29 0.29 0.30 0.26 0.24 0.19 0.44 0.56 0.56 0.50 0.48 0.44 0.36 0.27 0.23 0.19 0.13 0.34 0.68 0.95 1.11 1.25 0.98 0.84 0.87 0.98 1.18 1.19 1.14 0.73 0.73 0.80 0.89 0.78 0.57 0.60 0.62 0.45 0.29
0.32 0.31 0.33 0.36 0.37 0.37 0.40 0.35 0.34 0.46 0.66 0.80 1.05 1.22 1.18 1.13 1.03 0.76 0.60 0.52 0.44 0.40 0.39 0.33 0.34 0.31 0.30 0.30 0.24 0.30 0.50 0.75 0.71 0.84 0.65 0.51 0.46 0.41 0.34 0.24 0.15 0.13 0.17 0.56 0.97 1.18 1.21 1.35 1.20 1.16 1.15 1.30 1.24 1.14 0.74 0.86 1.00 0.69 0.44 0.48 0.46 0.43 0.27
0.32 0.31 0.32 0.33 0.35 0.37 0.40 0.39 0.35 0.39 0.61 0.84 1.07 1.13 1.12 1.06 0.97 0.85 0.69 0.62 0.56 0.47 0.38 0.32 0.29 0.34 0.38 0.32 0.30 0.52 0.70 1.14 0.87 0.81 0.62 0.42 0.44 0.49 0.44 0.29 0.18 0.16 0.18 0.19 0.24 0.31 0.38 0.44 0.59 0.54 0.55 0.45 0.56 0.65 0.79 0.68 0.70 0.61 0.57 0.55 0.44 0.37 0.35
0.27 0.28 0.31 0.33 0.40 0.41 0.41 0.40 0.38 0.41 0.54 0.80 0.86 1.07 0.97 0.83 0.81 0.83 0.75 0.69 0.61 0.63 0.55 0.43 0.38 0.33 0.36 0.62 0.80 0.71 1.06 1.21 1.60 0.91 0.83 0.63 0.62 0.56 0.38 0.19 0.15 0.20 0.23 0.23 0.23 0.22 0.20 0.25 0.30 0.35 0.45 0.46 0.42 0.36 0.42 0.62 0.45 0.49 0.54 0.51 0.44 0.35 0.31
0.28 0.33 0.37 0.36 0.36 0.40 0.40 0.40 0.38 0.34 0.47 0.64 0.68 0.84 1.12 0.86 0.77 0.68 0.67 0.69 0.70 0.61 0.52 0.48 0.42 0.38 0.34 0.42 0.63 0.75 1.00 1.14 1.41 1.24 0.84 0.84 0.72 0.43 0.28 0.34 0.42 0.37 0.30 0.32 0.27 0.24 0.22 0.23 0.27 0.35 0.40 0.44 0.40 0.39 0.37 0.48 0.35 0.39 0.32 0.42 0.47 0.41 0.35
0.37 0.36 0.29 0.26 0.30 0.34 0.35 0.34 0.34 0.38 0.41 0.43 0.61 0.83 1.09 0.93 0.80 0.65 0.73 0.78 0.63 0.49 0.42 0.37 0.37 0.38 0.38 0.40 0.54 0.78 1.15 1.19 1.35 1.46 1.05 0.85 0.95 1.04 0.99 0.54 0.46 0.40 0.40 0.35 0.33 0.30 0.28 0.28 0.28 0.29 0.32 0.39 0.40 0.36 0.49 0.39 0.32 0.27 0.25 0.23 0.25 0.32 0.34
0.36 0.31 0.28 0.28 0.32 0.33 0.32 0.31 0.31 0.41 0.35 0.35 0.52 0.71 0.91 0.96 0.95 0.94 0.73 0.70 0.61 0.46 0.38 0.33 0.35 0.34 0.37 0.44 0.80 1.06 1.29 1.36 1.62 1.37 1.21 1.32 1.21 1.10 0.93 0.84 0.79 0.64 0.55 0.46 0.37 0.34 0.37 0.32 0.27 0.29 0.27 0.25 0.33 0.31 0.25 0.27 0.27 0.27 0.27 0.29 0.23 0.20 0.21
0.35 0.26 0.27 0.31 0.32 0.32 0.30 0.29 0.34 0.36 0.30 0.32 0.38 0.56 0.80 0.89 0.94 0.92 0.72 0.65 0.54 0.45 0.41 0.38 0.34 0.32 0.43 0.76 0.80 0.95 1.21 1.42 1.27 1.20 1.37 1.53 1.37 0.96 0.86 0.84 0.85 0.80 0.71 0.58 0.47 0.41 0.34 0.29 0.21 0.21 0.20 0.21 0.18 0.27 0.30 0.28 0.28 0.26 0.27 0.27 0.22 0.19 0.18
0.26 0.28 0.29 0.30 0.31 0.34 0.33 0.33 0.34 0.30 0.30 0.31 0.34 0.40 0.57 0.66 0.78 0.67 0.62 0.58 0.48 0.45 0.43 0.40 0.49 0.62 0.72 0.82 0.89 0.92 0.86 0.90 0.83 0.85 1.04 0.95 0.96 0.99 0.92 0.97 0.84 0.66 0.55 0.62 0.61 0.46 0.32 0.22 0.18 0.17 0.17 0.17 0.20 0.23 0.33 0.37 0.34 0.31 0.26 0.27 0.25 0.24 0.17
0.30 0.28 0.27 0.29 0.29 0.33 0.36 0.39 0.33 0.28 0.30 0.34 0.35 0.37 0.46 0.55 0.49 0.50 0.47 0.52 0.47 0.38 0.35 0.38 0.53 0.41 0.42 0.47 0.55 0.64 0.74 0.94 0.69 0.61 0.60 0.72 0.84 0.81 0.90 0.91 0.78 0.60 0.54 0.49 0.37 0.32 0.30 0.24 0.20 0.22 0.25 0.20 0.22 0.28 0.33 0.37 0.39 0.43 0.36 0.32 0.34 0.33 0.31
0.32 0.31 0.33 0.35 0.34 0.37 0.37 0.39 0.31 0.29 0.32 0.40 0.45 0.45 0.47 0.51 0.47 0.50 0.42 0.42 0.49 0.45 0.39 0.37 0.40 0.40 0.42 0.43 0.46 0.55 0.64 0.59 0.49 0.53 0.70 0.60 0.56 0.76 0.85 1.09 0.75 0.56 0.51 0.40 0.32 0.28 0.21 0.20 0.27 0.25 0.34 0.37 0.34 0.34 0.31 0.31 0.32 0.39 0.38 0.33 0.31 0.30 0.29
0.48 0.50 0.54 0.57 0.50 0.50 0.44 0.37 0.31 0.32 0.42 0.53 0.54 0.56 0.52 0.49 0.48 0.55 0.55 0.41 0.41 0.43 0.39 0.42 0.43 0.46 0.46 0.56 0.61 0.61 0.61 0.58 0.54 0.47 0.42 0.43 0.49 0.57 0.64 0.74 0.74 0.69 0.66 0.50 0.48 0.49 0.38 0.38 0.37 0.39 0.37 0.35 0.33 0.27 0.25 0.27 0.34 0.34 0.41 0.44 0.40 0.46 0.40
0.86 0.77 0.80 0.67 0.66 0.73 0.63 0.50 0.50 0.48 0.53 0.56 0.57 0.61 0.60 0.61 0.57 0.53 0.51 0.41 0.42 0.46 0.46 0.43 0.44 0.45 0.45 0.43 0.44 0.47 0.48 0.45 0.41 0.37 0.38 0.45 0.48 0.45 0.47 0.49 0.64 0.70 0.59 0.47 0.50 0.57 0.54 0.54 0.52 0.43 0.35 0.36 0.36 0.29 0.25 0.27 0.34 0.37 0.37 0.45 0.53 0.55 0.43
1.05 1.02 1.00 0.88 0.69 0.71 0.80 0.73 0.61 0.57 0.73 0.74 0.77 0.88 0.74 0.67 0.73 0.67 0.56 0.48 0.44 0.42 0.43 0.40 0.37 0.37 0.36 0.35 0.33 0.34 0.34 0.33 0.33 0.33 0.34 0.37 0.42 0.40 0.42 0.44 0.48 0.52 0.48 0.44 0.52 0.49 0.53 0.49 0.47 0.40 0.37 0.36 0.35 0.34 0.28 0.27 0.35 0.41 0.43 0.49 0.59 0.57 0.49
0.94 1.02 0.87 0.82 0.89 0.78 0.56 0.53 0.49 0.50 0.68 0.74 0.90 0.93 0.86 0.90 0.84 0.76 0.68 0.56 0.51 0.47 0.41 0.37 0.32 0.33 0.31 0.29 0.28 0.29 0.29 0.30 0.30 0.29 0.29 0.32 0.34 0.34 0.37 0.41 0.42 0.47 0.46 0.46 0.49 0.52 0.55 0.50 0.47 0.42 0.35 0.33 0.30 0.30 0.34 0.39 0.43 0.40 0.47 0.49 0.48 0.48 0.43
0.77 0.88 0.99 0.82 0.87 0.99 0.78 0.65 0.61 0.59 0.76 0.90 1.03 1.01 0.93 0.88 0.94 0.90 0.77 0.61 0.61 0.53 0.42 0.35 0.31 0.31 0.30 0.27 0.27 0.26 0.25 0.28 0.32 0.32 0.32 0.30 0.27 0.25 0.26 0.29 0.36 0.42 0.44 0.46 0.47 0.47 0.51 0.54 0.53 0.48 0.40 0.34 0.29 0.28 0.30 0.37 0.47 0.52 0.62 0.57 0.50 0.43 0.39
0.53 0.59 0.70 0.72 0.87 0.94 0.92 0.71 0.68 0.69 0.85 0.90 0.96 0.91 0.74 0.71 0.73 0.64 0.59 0.50 0.37 0.33 0.36 0.35 0.33 0.31 0.30 0.28 0.26 0.27 0.28 0.30 0.34 0.29 0.28 0.27 0.28 0.25 0.23 0.24 0.25 0.31 0.37 0.41 0.43 0.45 0.46 0.56 0.49 0.53 0.49 0.46 0.38 0.35 0.32 0.28 0.30 0.34 0.37 0.46 0.52 0.46 0.41
0.41 0.37 0.40 0.43 0.56 0.68 0.70 0.60 0.57 0.59 0.60 0.64 0.70 0.73 0.73 0.75 0.66 0.60 0.61 0.44 0.37 0.32 0.31 0.31 0.31 0.31 0.32 0.32 0.31 0.31 0.30 0.31 0.33 0.27 0.25 0.22 0.21 0.22 0.22 0.20 0.21 0.26 0.30 0.32 0.36 0.39 0.38 0.41 0.43 0.51 0.51 0.54 0.47 0.40 0.34 0.33 0.30 0.28 0.34 0.41 0.39 0.36 0.37
0.32 0.29 0.33 0.42 0.45 0.56 0.60 0.50 0.47 0.53 0.63 0.70 0.71 0.70 0.80 0.63 0.59 0.63 0.51 0.37 0.30 0.30 0.30 0.29 0.29 0.28 0.27 0.26 0.27 0.29 0.29 0.29 0.30 0.26 0.24 0.22 0.20 0.18 0.19 0.22 0.21 0.21 0.22 0.24 0.27 0.31 0.34 0.35 0.39 0.43 0.44 0.45 0.44 0.44 0.42 0.36 0.34 0.33 0.32 0.32 0.35 0.31 0.29
0.35 0.31 0.29 0.38 0.37 0.42 0.56 0.55 0.49 0.51 0.65 0.79 0.79 0.79 0.69 0.57 0.48 0.40 0.38 0.33 0.32 0.31 0.31 0.30 0.31 0.30 0.30 0.31 0.33 0.33 0.31 0.30 0.30 0.30 0.29 0.27 0.24 0.21 0.20 0.22 0.23 0.21 0.21 0.20 0.21 0.24 0.27 0.30 0.34 0.39 0.43 0.43 0.39 0.36 0.34 0.32 0.30 0.28 0.30 0.29 0.30 0.33 0.31

ECMWFFLT1_prec_precacc_126.txt.gz
Total_Precipitation_Accumulation
0.05 0.06 0.07 0.08 0.08 0.07 0.12 0.08 0.11 0.07 0.07 0.09 0.07 0.08 0.07 0.07 0.07 0.07 0.07 0.08 0.08 0.09 0.14 0.15 0.16 0.15 0.15 0.17 0.22 0.23 0.19 0.20 0.18 0.18 0.19 0.19 0.21 0.24 0.24 0.23 0.37 0.34 0.22 0.07 0.02 0.01 0.01 0.00 0.02 0.03 0.06 0.09 0.15 0.16 0.15 0.06 0.04 0.06 0.04 0.07 0.09 0.13 0.10
0.07 0.07 0.08 0.09 0.09 0.08 0.08 0.13 0.11 0.08 0.08 0.08 0.07 0.08 0.09 0.11 0.13 0.09 0.09 0.08 0.08 0.07 0.09 0.13 0.15 0.13 0.12 0.13 0.21 0.25 0.25 0.24 0.21 0.25 0.24 0.20 0.21 0.22 0.21 0.19 0.23 0.29 0.25 0.16 0.05 0.02 0.01 0.01 0.01 0.03 0.04 0.07 0.09 0.13 0.17 0.15 0.10 0.07 0.08 0.07 0.11 0.14 0.10
0.11 0.11 0.11 0.11 0.10 0.10 0.12 0.13 0.14 0.11 0.14 0.16 0.14 0.12 0.09 0.09 0.09 0.09 0.09 0.08 0.08 0.07 0.08 0.10 0.14 0.15 0.14 0.14 0.23 0.25 0.26 0.25 0.27 0.25 0.24 0.24 0.18 0.16 0.13 0.15 0.20 0.24 0.24 0.18 0.12 0.05 0.03 0.02 0.02 0.03 0.04 0.05 0.09 0.11 0.09 0.15 0.18 0.15 0.14 0.11 0.11 0.11 0.09
0.09 0.10 0.10 0.12 0.12 0.17 0.11 0.12 0.11 0.13 0.16 0.17 0.15 0.17 0.19 0.15 0.12 0.11 0.11 0.12 0.10 0.08 0.08 0.09 0.12 0.13 0.14 0.19 0.21 0.22 0.23 0.25 0.26 0.26 0.26 0.24 0.20 0.19 0.14 0.10 0.11 0.16 0.20 0.18 0.17 0.09 0.06 0.03 0.03 0.03 0.04 0.05 0.06 0.10 0.14 0.15 0.22 0.23 0.21 0.17 0.17 0.09 0.10
0.09 0.11 0.12 0.12 0.10 0.09 0.09 0.10 0.10 0.11 0.11 0.11 0.12 0.15 0.15 0.16 0.16 0.16 0.15 0.14 0.14 0.15 0.14 0.13 0.11 0.10 0.10 0.12 0.19 0.21 0.24 0.25 0.26 0.28 0.28 0.26 0.20 0.20 0.16 0.14 0.14 0.16 0.18 0.27 0.21 0.15 0.08 0.04 0.04 0.04 0.05 0.05 0.08 0.10 0.15 0.18 0.21 0.23 0.27 0.25 0.21 0.16 0.11
0.13 0.13 0.12 0.12 0.12 0.12 0.14 0.12 0.12 0.12 0.15 0.12 0.10 0.11 0.12 0.13 0.13 0.13 0.15 0.16 0.16 0.15 0.15 0.16 0.15 0.13 0.14 0.14 0.17 0.18 0.16 0.21 0.28 0.31 0.27 0.26 0.28 0.28 0.23 0.21 0.19 0.18 0.21 0.23 0.22 0.19 0.13 0.08 0.07 0.07 0.07 0.07 0.08 0.10 0.13 0.21 0.23 0.22 0.27 0.29 0.29 0.28 0.21
0.15 0.15 0.14 0.14 0.14 0.14 0.14 0.14 0.13 0.13 0.12 0.12 0.13 0.14 0.13 0.13 0.13 0.12 0.13 0.13 0.13 0.13 0.13 0.15 0.15 0.14 0.14 0.15 0.15 0.16 0.15 0.16 0.17 0.26 0.28 0.29 0.30 0.28 0.30 0.37 0.37 0.31 0.24 0.23 0.24 0.26 0.15 0.12 0.14 0.08 0.11 0.07 0.06 0.08 0.09 0.13 0.20 0.26 0.24 0.26 0.27 0.27 0.24
0.18 0.17 0.16 0.18 0.18 0.16 0.15 0.16 0.15 0.15 0.14 0.14 0.14 0.14 0.16 0.15 0.17 0.18 0.17 0.15 0.13 0.12 0.13 0.14 0.14 0.14 0.13 0.13 0.13 0.13 0.13 0.14 0.17 0.21 0.26 0.24 0.25 0.29 0.39 0.41 0.39 0.37 0.36 0.37 0.36 0.29 0.23 0.17 0.12 0.10 0.07 0.10 0.13 0.15 0.15 0.12 0.13 0.19 0.21 0.25 0.28 0.26 0.25
0.22 0.21 0.22 0.19 0.19 0.20 0.18 0.19 0.18 0.17 0.17 0.18 0.18 0.19 0.23 0.22 0.24 0.23 0.22 0.20 0.19 0.17 0.15 0.13 0.13 0.13 0.16 0.12 0.12 0.12 0.13 0.14 0.16 0.20 0.24 0.23 0.25 0.32 0.38 0.40 0.40 0.43 0.45 0.44 0.40 0.36 0.24 0.21 0.16 0.13 0.12 0.12 0.14 0.16 0.15 0.12 0.11 0.16 0.17 0.18 0.20 0.23 0.27
0.23 0.26 0.34 0.24 0.22 0.22 0.24 0.23 0.21 0.19 0.19 0.24 0.33 0.40 0.41 0.41 0.39 0.36 0.34 0.32 0.28 0.23 0.19 0.17 0.15 0.13 0.11 0.11 0.13 0.14 0.15 0.18 0.22 0.22 0.24 0.28 0.30 0.33 0.40 0.45 0.48 0.47 0.42 0.43 0.49 0.40 0.31 0.31 0.23 0.15 0.11 0.10 0.09 0.07 0.06 0.07 0.08 0.09 0.09 0.10 0.17 0.19 0.24
0.32 0.31 0.30 0.30 0.31 0.34 0.31 0.30 0.24 0.22 0.29 0.49 0.67 0.64 0.62 0.57 0.49 0.41 0.38 0.35 0.31 0.28 0.22 0.18 0.16 0.14 0.13 0.14 0.15 0.16 0.19 0.22 0.22 0.28 0.32 0.29 0.27 0.34 0.43 0.51 0.55 0.49 0.41 0.43 0.41 0.38 0.31 0.27 0.21 0.12 0.12 0.11 0.09 0.07 0.07 0.09 0.09 0.09 0.10 0.14 0.19 0.24 0.22
0.40 0.32 0.31 0.32 0.33 0.35 0.34 0.34 0.28 0.32 0.50 0.64 0.84 1.00 0.79 0.73 0.62 0.51 0.43 0.38 0.34 0.29 0.25 0.21 0.19 0.17 0.16 0.16 0.15 0.15 0.16 0.18 0.22 0.27 0.28 0.31 0.37 0.44 0.56 0.67 0.57 0.56 0.53 0.44 0.46 0.45 0.36 0.34 0.24 0.13 0.10 0.09 0.11 0.12 0.11 0.12 0.13 0.15 0.17 0.18 0.18 0.17 0.17
0.38 0.37 0.38 0.38 0.43 0.38 0.36 0.36 0.32 0.40 0.59 0.71 0.98 1.14 1.12 0.90 0.71 0.56 0.44 0.37 0.32 0.29 0.25 0.23 0.25 0.23 0.21 0.18 0.16 0.19 0.18 0.20 0.20 0.22 0.26 0.30 0.33 0.37 0.52 0.74 0.99 0.83 0.60 0.63 0.61 0.58 0.46 0.31 0.27 0.30 0.18 0.10 0.10 0.17 0.20 0.17 0.19 0.22 0.22 0.21 0.19 0.16 0.13
0.44 0.44 0.48 0.48 0.50 0.47 0.46 0.43 0.40 0.46 0.73 0.95 1.13 1.32 1.39 0.95 0.80 0.64 0.52 0.42 0.35 0.31 0.28 0.26 0.28 0.29 0.27 0.22 0.20 0.22 0.22 0.21 0.21 0.20 0.21 0.25 0.29 0.32 0.33 0.47 0.54 0.55 0.50 0.54 0.60 0.66 0.57 0.36 0.37 0.26 0.24 0.39 0.30 0.28 0.31 0.29 0.26 0.28 0.28 0.28 0.26 0.19 0.18
0.50 0.51 0.53 0.54 0.62 0.59 0.58 0.49 0.46 0.65 0.93 1.04 1.21 1.29 1.68 1.19 1.02 0.81 0.61 0.47 0.40 0.37 0.33 0.30 0.28 0.27 0.25 0.22 0.23 0.23 0.22 0.22 0.22 0.22 0.23 0.22 0.22 0.21 0.20 0.20 0.20 0.25 0.40 0.45 0.37 0.38 0.38 0.32 0.27 0.23 0.20 0.21 0.28 0.41 0.43 0.36 0.33 0.30 0.32 0.35 0.35 0.37 0.33
0.42 0.43 0.43 0.43 0.46 0.52 0.51 0.40 0.45 0.70 0.94 1.05 1.28 1.53 1.43 1.34 1.02 0.78 0.63 0.51 0.44 0.38 0.35 0.31 0.32 0.33 0.30 0.26 0.23 0.21 0.41 0.31 0.28 0.31 0.33 0.29 0.23 0.19 0.16 0.15 0.14 0.22 0.29 0.22 0.32 0.34 0.29 0.26 0.21 0.31 0.30 0.34 0.37 0.35 0.36 0.43 0.48 0.51 0.58 0.63 0.64 0.52 0.34
0.30 0.32 0.37 0.38 0.39 0.41 0.38 0.36 0.39 0.57 0.85 0.94 1.19 1.62 1.72 1.45 1.03 0.77 0.60 0.48 0.41 0.37 0.35 0.32 0.31 0.31 0.32 0.28 0.26 0.21 0.46 0.58 0.58 0.52 0.50 0.46 0.37 0.28 0.23 0.20 0.13 0.34 0.68 0.96 1.12 1.26 0.98 0.85 0.87 0.99 1.19 1.20 1.15 0.73 0.73 0.80 0.89 0.78 0.57 0.60 0.62 0.45 0.29
0.32 0.32 0.34 0.37 0.38 0.38 0.41 0.36 0.34 0.47 0.67 0.83 1.09 1.27 1.24 1.21 1.09 0.81 0.64 0.55 0.46 0.42 0.40 0.33 0.35 0.32 0.31 0.31 0.25 0.32 0.51 0.77 0.74 0.87 0.67 0.53 0.47 0.41 0.35 0.24 0.15 0.13 0.17 0.56 1.00 1.22 1.24 1.38 1.26 1.20 1.20 1.37 1.33 1.24 0.76 0.88 1.02 0.70 0.44 0.48 0.47 0.44 0.27
0.33 0.31 0.32 0.34 0.36 0.38 0.41 0.40 0.36 0.41 0.62 0.86 1.10 1.17 1.19 1.15 1.04 0.90 0.73 0.65 0.59 0.49 0.40 0.33 0.29 0.34 0.39 0.33 0.31 0.54 0.72 1.16 0.90 0.84 0.64 0.44 0.45 0.50 0.44 0.29 0.19 0.16 0.18 0.19 0.24 0.31 0.38 0.44 0.60 0.56 0.57 0.48 0.58 0.68 0.83 0.75 0.77 0.64 0.58 0.56 0.46 0.38 0.36
0.28 0.28 0.31 0.34 0.40 0.42 0.41 0.41 0.39 0.43 0.56 0.82 0.88 1.10 1.03 0.92 0.88 0.88 0.79 0.72 0.64 0.65 0.57 0.45 0.39 0.33 0.36 0.62 0.80 0.72 1.07 1.23 1.64 0.94 0.85 0.65 0.64 0.57 0.39 0.20 0.15 0.20 0.23 0.23 0.23 0.22 0.20 0.26 0.30 0.35 0.45 0.47 0.42 0.36 0.42 0.62 0.48 0.55 0.58 0.54 0.45 0.35 0.32
0.29 0.33 0.37 0.37 0.37 0.40 0.41 0.41 0.39 0.35 0.49 0.65 0.70 0.86 1.15 0.89 0.81 0.71 0.69 0.71 0.71 0.62 0.54 0.49 0.43 0.39 0.34 0.43 0.64 0.77 1.02 1.19 1.46 1.27 0.87 0.86 0.74 0.44 0.28 0.34 0.42 0.38 0.30 0.32 0.27 0.24 0.23 0.23 0.27 0.35 0.40 0.44 0.40 0.39 0.37 0.48 0.35 0.39 0.33 0.44 0.49 0.43 0.36
0.37 0.36 0.29 0.27 0.30 0.35 0.36 0.35 0.35 0.39 0.42 0.44 0.62 0.84 1.10 0.94 0.81 0.66 0.74 0.79 0.64 0.50 0.43 0.37 0.37 0.38 0.38 0.40 0.55 0.82 1.23 1.24 1.40 1.51 1.08 0.87 1.00 1.08 1.02 0.55 0.46 0.40 0.40 0.35 0.33 0.30 0.28 0.28 0.28 0.29 0.32 0.39 0.40 0.36 0.49 0.39 0.32 0.27 0.25 0.23 0.25 0.32 0.35
0.36 0.31 0.28 0.28 0.32 0.33 0.33 0.32 0.32 0.42 0.36 0.36 0.53 0.72 0.92 0.97 0.96 0.95 0.74 0.71 0.62 0.46 0.38 0.34 0.35 0.34 0.37 0.44 0.81 1.11 1.32 1.40 1.64 1.39 1.23 1.35 1.25 1.15 0.96 0.86 0.81 0.66 0.58 0.48 0.38 0.34 0.37 0.32 0.27 0.29 0.27 0.25 0.33 0.31 0.25 0.27 0.27 0.27 0.27 0.29 0.23 0.20 0.21
0.35 0.27 0.28 0.31 0.32 0.32 0.30 0.30 0.35 0.36 0.31 0.33 0.38 0.56 0.80 0.89 0.94 0.93 0.73 0.65 0.54 0.46 0.42 0.39 0.34 0.33 0.43 0.76 0.81 0.98 1.25 1.45 1.29 1.21 1.38 1.55 1.39 0.97 0.88 0.85 0.87 0.84 0.76 0.62 0.50 0.43 0.35 0.30 0.22 0.21 0.20 0.21 0.18 0.27 0.30 0.28 0.28 0.26 0.27 0.27 0.22 0.19 0.18
0.27 0.28 0.29 0.30 0.31 0.34 0.33 0.33 0.34 0.30 0.30 0.31 0.34 0.40 0.58 0.66 0.78 0.67 0.62 0.58 0.48 0.45 0.44 0.42 0.50 0.64 0.74 0.85 0.94 0.97 0.89 0.92 0.84 0.86 1.05 0.96 0.97 1.01 0.93 0.99 0.86 0.68 0.59 0.68 0.66 0.50 0.35 0.23 0.19 0.17 0.17 0.17 0.20 0.23 0.33 0.37 0.34 0.31 0.26 0.27 0.25 0.24 0.17
0.30 0.28 0.27 0.29 0.29 0.33 0.36 0.39 0.33 0.28 0.30 0.34 0.35 0.37 0.46 0.55 0.49 0.50 0.47 0.52 0.47 0.38 0.35 0.38 0.54 0.43 0.44 0.50 0.57 0.65 0.75 0.95 0.70 0.61 0.60 0.72 0.84 0.81 0.91 0.93 0.81 0.62 0.56 0.51 0.39 0.35 0.32 0.26 0.20 0.22 0.25 0.20 0.22 0.28 0.33 0.37 0.39 0.43 0.36 0.32 0.34 0.33 0.31
0.32 0.31 0.33 0.35 0.34 0.37 0.37 0.39 0.31 0.29 0.32 0.40 0.45 0.45 0.47 0.51 0.47 0.50 0.42 0.42 0.49 0.45 0.39 0.37 0.40 0.40 0.43 0.43 0.47 0.57 0.66 0.60 0.50 0.53 0.70 0.60 0.56 0.76 0.86 1.09 0.76 0.56 0.52 0.41 0.34 0.29 0.23 0.21 0.28 0.26 0.34 0.37 0.34 0.34 0.31 0.31 0.32 0.39 0.38 0.33 0.31 0.30 0.29
0.48 0.50 0.54 0.57 0.50 0.50 0.44 0.37 0.31 0.32 0.42 0.53 0.54 0.56 0.52 0.49 0.48 0.55 0.55 0.41 0.41 0.43 0.39 0.42 0.43 0.46 0.46 0.56 0.61 0.61 0.61 0.58 0.55 0.48 0.43 0.43 0.50 0.57 0.64 0.74 0.74 0.69 0.67 0.51 0.49 0.50 0.39 0.39 0.38 0.41 0.39 0.36 0.34 0.27 0.25 0.27 0.34 0.34 0.41 0.44 0.40 0.47 0.41
0.86 0.77 0.80 0.68 0.67 0.74 0.64 0.51 0.50 0.48 0.53 0.56 0.57 0.61 0.60 0.61 0.57 0.53 0.51 0.41 0.42 0.46 0.46 0.43 0.44 0.45 0.45 0.43 0.44 0.47 0.48 0.45 0.42 0.38 0.39 0.46 0.49 0.46 0.47 0.49 0.64 0.70 0.60 0.47 0.50 0.57 0.55 0.55 0.52 0.44 0.36 0.37 0.37 0.30 0.25 0.27 0.34 0.37 0.38 0.45 0.53 0.55 0.44
1.06 1.03 1.01 0.90 0.70 0.72 0.82 0.74 0.62 0.58 0.74 0.75 0.79 0.91 0.76 0.70 0.76 0.70 0.58 0.49 0.45 0.43 0.44 0.41 0.37 0.37 0.36 0.35 0.33 0.34 0.34 0.33 0.33 0.33 0.34 0.38 0.42 0.41 0.42 0.44 0.48 0.52 0.48 0.44 0.52 0.49 0.53 0.50 0.47 0.40 0.38 0.37 0.36 0.34 0.28 0.27 0.35 0.41 0.43 0.50 0.59 0.58 0.49
0.94 1.02 0.87 0.83 0.90 0.78 0.57 0.54 0.50 0.51 0.69 0.75 0.91 0.95 0.89 0.94 0.87 0.80 0.74 0.62 0.55 0.49 0.42 0.38 0.33 0.34 0.31 0.29 0.28 0.29 0.29 0.30 0.30 0.29 0.29 0.32 0.34 0.34 0.37 0.41 0.42 0.47 0.46 0.46 0.49 0.52 0.56 0.50 0.47 0.42 0.35 0.33 0.30 0.30 0.34 0.39 0.44 0.40 0.47 0.50 0.49 0.48 0.43
0.78 0.89 0.99 0.82 0.87 0.99 0.79 0.65 0.62 0.60 0.77 0.91 1.05 1.03 0.94 0.89 0.95 0.90 0.78 0.62 0.62 0.55 0.44 0.37 0.32 0.32 0.30 0.28 0.27 0.26 0.25 0.28 0.32 0.32 0.32 0.30 0.27 0.26 0.26 0.29 0.37 0.42 0.44 0.46 0.47 0.48 0.51 0.55 0.53 0.48 0.40 0.34 0.30 0.29 0.31 0.37 0.48 0.53 0.62 0.58 0.50 0.44 0.39
0.53 0.59 0.70 0.72 0.87 0.95 0.92 0.72 0.68 0.69 0.85 0.90 0.96 0.92 0.74 0.72 0.74 0.64 0.60 0.50 0.38 0.34 0.37 0.36 0.34 0.33 0.32 0.30 0.28 0.28 0.28 0.31 0.34 0.29 0.28 0.27 0.28 0.25 0.23 0.24 0.25 0.31 0.37 0.41 0.43 0.45 0.46 0.57 0.49 0.53 0.49 0.46 0.38 0.35 0.32 0.28 0.31 0.35 0.38 0.46 0.52 0.47 0.42
0.41 0.37 0.40 0.43 0.56 0.68 0.70 0.60 0.57 0.60 0.60 0.64 0.70 0.73 0.75 0.77 0.68 0.61 0.62 0.44 0.37 0.33 0.32 0.31 0.31 0.32 0.33 0.33 0.32 0.32 0.31 0.32 0.34 0.28 0.25 0.22 0.21 0.22 0.22 0.20 0.21 0.26 0.30 0.32 0.36 0.40 0.38 0.41 0.43 0.51 0.51 0.54 0.47 0.41 0.34 0.33 0.30 0.29 0.35 0.41 0.39 0.37 0.37
0.32 0.29 0.33 0.42 0.45 0.56 0.60 0.50 0.48 0.54 0.63 0.71 0.72 0.72 0.83 0.65 0.59 0.64 0.51 0.37 0.30 0.30 0.30 0.30 0.29 0.29 0.27 0.27 0.28 0.30 0.30 0.30 0.31 0.27 0.25 0.23 0.21 0.18 0.19 0.22 0.21 0.21 0.22 0.24 0.28 0.31 0.34 0.35 0.39 0.44 0.44 0.45 0.44 0.44 0.43 0.37 0.34 0.34 0.32 0.33 0.36 0.32 0.29
0.35 0.31 0.29 0.38 0.37 0.42 0.56 0.55 0.49 0.51 0.66 0.80 0.81 0.80 0.69 0.57 0.48 0.40 0.38 0.33 0.32 0.31 0.31 0.30 0.31 0.31 0.31 0.33 0.34 0.34 0.32 0.31 0.31 0.31 0.30 0.28 0.25 0.23 0.21 0.22 0.23 0.22 0.21 0.20 0.21 0.24 0.27 0.30 0.34 0.39 0.43 0.43 0.39 0.37 0.34 0.32 0.30 0.29 0.30 0.30 0.30 0.33 0.31

ECMWFFLT1_prec_precacc_129.txt.gz
Total_Precipitation_Accumulation
0.05 0.06 0.07 0.08 0.08 0.07 0.12 0.08 0.11 0.07 0.07 0.09 0.07 0.08 0.07 0.07 0.07 0.07 0.07 0.08 0.08 0.09 0.14 0.15 0.16 0.15 0.15 0.17 0.22 0.23 0.19 0.20 0.18 0.18 0.19 0.19 0.21 0.24 0.24 0.23 0.38 0.35 0.23 0.07 0.02 0.01 0.01 0.00 0.02 0.03 0.06 0.09 0.15 0.16 0.15 0.06 0.04 0.06 0.04 0.07 0.09 0.13 0.10
0.07 0.07 0.08 0.09 0.09 0.08 0.08 0.13 0.11 0.08 0.08 0.08 0.07 0.08 0.09 0.11 0.13 0.09 0.09 0.08 0.08 0.07 0.09 0.13 0.15 0.13 0.12 0.13 0.21 0.25 0.25 0.24 0.21 0.25 0.24 0.20 0.21 0.22 0.22 0.19 0.24 0.30 0.26 0.17 0.05 0.02 0.01 0.01 0.01 0.03 0.04 0.07 0.09 0.13 0.17 0.15 0.10 0.07 0.08 0.07 0.11 0.14 0.10
0.11 0.11 0.11 0.11 0.10 0.10 0.12 0.13 0.14 0.11 0.14 0.16 0.14 0.12 0.09 0.09 0.09 0.09 0.09 0.08 0.08 0.07 0.08 0.10 0.14 0.15 0.14 0.14 0.23 0.25 0.26 0.26 0.27 0.26 0.24 0.25 0.18 0.16 0.14 0.15 0.20 0.25 0.25 0.19 0.13 0.05 0.03 0.02 0.02 0.03 0.04 0.05 0.09 0.11 0.09 0.15 0.18 0.15 0.14 0.11 0.11 0.11 0.09
0.09 0.10 0.10 0.12 0.12 0.17 0.11 0.12 0.11 0.13 0.16 0.17 0.15 0.17 0.19 0.15 0.12 0.11 0.11 0.12 0.10 0.08 0.08 0.09 0.12 0.13 0.14 0.19 0.21 0.22 0.23 0.25 0.27 0.26 0.27 0.24 0.21 0.20 0.15 0.11 0.11 0.17 0.22 0.19 0.18 0.10 0.07 0.03 0.03 0.03 0.04 0.05 0.06 0.10 0.14 0.15 0.22 0.23 0.21 0.17 0.17 0.09 0.10
0.09 0.11 0.12 0.12 0.10 0.09 0.09 0.10 0.10 0.11 0.11 0.11 0.12 0.15 0.15 0.16 0.16 0.16 0.15 0.14 0.14 0.15 0.14 0.13 0.11 0.10 0.11 0.12 0.19 0.22 0.24 0.25 0.27 0.29 0.29 0.27 0.21 0.21 0.18 0.16 0.16 0.18 0.20 0.29 0.23 0.16 0.09 0.05 0.04 0.04 0.05 0.05 0.08 0.10 0.15 0.18 0.21 0.23 0.27 0.25 0.21 0.16 0.11
0.13 0.13 0.12 0.12 0.12 0.12 0.14 0.12 0.12 0.12 0.15 0.12 0.10 0.11 0.12 0.13 0.13 0.13 0.15 0.16 0.16 0.15 0.15 0.16 0.15 0.13 0.14 0.15 0.17 0.18 0.17 0.22 0.28 0.31 0.28 0.27 0.30 0.30 0.25 0.23 0.21 0.20 0.23 0.25 0.24 0.20 0.13 0.08 0.07 0.07 0.07 0.07 0.08 0.10 0.13 0.21 0.23 0.22 0.27 0.29 0.29 0.28 0.21
0.15 0.15 0.14 0.14 0.14 0.14 0.14 0.14 0.13 0.13 0.12 0.12 0.13 0.14 0.13 0.13 0.13 0.12 0.13 0.13 0.13 0.13 0.14 0.15 0.15 0.15 0.14 0.15 0.15 0.16 0.16 0.17 0.18 0.27 0.30 0.31 0.32 0.30 0.33 0.40 0.40 0.34 0.26 0.24 0.25 0.27 0.15 0.12 0.14 0.08 0.11 0.07 0.06 0.08 0.09 0.13 0.20 0.26 0.24 0.26 0.27 0.27 0.24
0.18 0.17 0.16 0.18 0.18 0.16 0.15 0.16 0.15 0.15 0.14 0.14 0.14 0.14 0.16 0.15 0.18 0.19 0.17 0.15 0.13 0.13 0.13 0.14 0.15 0.15 0.14 0.13 0.13 0.13 0.13 0.14 0.18 0.23 0.28 0.26 0.28 0.32 0.41 0.44 0.42 0.40 0.38 0.38 0.37 0.30 0.24 0.18 0.12 0.10 0.07 0.10 0.13 0.15 0.15 0.12 0.13 0.19 0.21 0.25 0.28 0.26 0.25
0.22 0.21 0.22 0.19 0.19 0.20 0.18 0.19 0.18 0.17 0.18 0.18 0.18 0.19 0.24 0.23 0.24 0.23 0.23 0.21 0.19 0.17 0.15 0.14 0.14 0.13 0.16 0.13 0.12 0.12 0.13 0.14 0.17 0.22 0.25 0.25 0.27 0.34 0.40 0.43 0.42 0.45 0.47 0.45 0.41 0.37 0.25 0.21 0.16 0.13 0.12 0.12 0.14 0.16 0.15 0.12 0.11 0.16 0.17 0.18 0.20 0.23 0.27
0.23 0.26 0.35 0.24 0.22 0.22 0.25 0.23 0.21 0.19 0.20 0.25 0.34 0.41 0.42 0.42 0.40 0.37 0.35 0.33 0.29 0.24 0.20 0.17 0.15 0.13 0.11 0.12 0.13 0.15 0.16 0.19 0.22 0.23 0.25 0.29 0.32 0.35 0.43 0.47 0.50 0.49 0.43 0.44 0.49 0.40 0.31 0.31 0.23 0.15 0.11 0.10 0.09 0.07 0.06 0.07 0.08 0.09 0.09 0.10 0.17 0.19 0.24
0.32 0.31 0.31 0.30 0.31 0.35 0.32 0.30 0.25 0.23 0.30 0.50 0.68 0.65 0.64 0.59 0.50 0.42 0.40 0.36 0.33 0.29 0.23 0.18 0.16 0.15 0.14 0.14 0.15 0.17 0.19 0.22 0.23 0.29 0.33 0.30 0.29 0.36 0.45 0.53 0.57 0.51 0.43 0.44 0.42 0.38 0.31 0.27 0.21 0.12 0.12 0.11 0.09 0.07 0.07 0.09 0.09 0.09 0.10 0.14 0.19 0.24 0.22
0.40 0.33 0.31 0.33 0.34 0.36 0.35 0.35 0.29 0.33 0.52 0.66 0.87 1.02 0.82 0.75 0.64 0.53 0.45 0.40 0.35 0.30 0.25 0.22 0.19 0.18 0.16 0.17 0.16 0.16 0.16 0.19 0.23 0.28 0.29 0.33 0.39 0.46 0.58 0.69 0.58 0.57 0.55 0.45 0.46 0.45 0.36 0.34 0.24 0.13 0.10 0.09 0.11 0.12 0.11 0.12 0.13 0.16 0.17 0.18 0.18 0.17 0.17
0.38 0.38 0.39 0.39 0.44 0.39 0.37 0.37 0.33 0.42 0.62 0.73 1.00 1.17 1.15 0.93 0.73 0.58 0.46 0.38 0.33 0.29 0.26 0.24 0.25 0.24 0.22 0.18 0.16 0.19 0.19 0.21 0.21 0.24 0.28 0.32 0.35 0.39 0.54 0.76 1.00 0.83 0.61 0.64 0.62 0.58 0.46 0.31 0.27 0.30 0.18 0.10 0.10 0.17 0.20 0.17 0.19 0.22 0.22 0.21 0.19 0.16 0.13
0.45 0.44 0.49 0.50 0.51 0.48 0.47 0.44 0.41 0.48 0.75 0.98 1.16 1.35 1.43 1.00 0.82 0.66 0.53 0.43 0.36 0.32 0.29 0.27 0.28 0.30 0.28 0.23 0.21 0.23 0.23 0.22 0.23 0.23 0.24 0.27 0.32 0.34 0.35 0.48 0.56 0.56 0.51 0.55 0.61 0.67 0.58 0.36 0.37 0.27 0.25 0.39 0.30 0.28 0.31 0.29 0.26 0.28 0.28 0.28 0.26 0.19 0.18
0.51 0.52 0.54 0.55 0.63 0.60 0.59 0.50 0.48 0.67 0.96 1.07 1.25 1.33 1.74 1.25 1.07 0.84 0.62 0.48 0.40 0.37 0.34 0.30 0.29 0.28 0.26 0.23 0.24 0.24 0.23 0.24 0.24 0.25 0.26 0.25 0.25 0.23 0.22 0.22 0.21 0.26 0.41 0.46 0.38 0.39 0.38 0.32 0.27 0.23 0.20 0.21 0.28 0.41 0.43 0.36 0.33 0.30 0.32 0.35 0.35 0.37 0.33
0.42 0.43 0.44 0.43 0.47 0.53 0.52 0.41 0.46 0.72 0.96 1.08 1.31 1.58 1.48 1.39 1.07 0.84 0.68 0.53 0.45 0.39 0.35 0.31 0.32 0.34 0.31 0.27 0.25 0.23 0.42 0.34 0.30 0.35 0.36 0.33 0.26 0.21 0.18 0.17 0.15 0.23 0.30 0.23 0.33 0.34 0.29 0.26 0.21 0.31 0.30 0.34 0.37 0.35 0.36 0.43 0.48 0.51 0.58 0.63 0.64 0.52 0.34
0.31 0.33 0.37 0.39 0.39 0.42 0.39 0.36 0.40 0.58 0.87 0.97 1.22 1.66 1.76 1.49 1.08 0.81 0.64 0.51 0.43 0.39 0.36 0.33 0.31 0.32 0.33 0.29 0.27 0.22 0.47 0.60 0.61 0.56 0.53 0.49 0.40 0.30 0.25 0.21 0.14 0.34 0.68 0.96 1.13 1.27 0.98 0.85 0.87 0.99 1.19 1.20 1.15 0.73 0.73 0.80 0.89 0.78 0.57 0.60 0.62 0.45 0.29
0.33 0.33 0.34 0.37 0.39 0.39 0.41 0.37 0.35 0.48 0.69 0.84 1.11 1.30 1.29 1.26 1.13 0.83 0.66 0.57 0.48 0.44 0.42 0.34 0.36 0.33 0.32 0.33 0.27 0.33 0.53 0.79 0.77 0.90 0.71 0.56 0.50 0.43 0.36 0.25 0.15 0.14 0.18 0.57 1.02 1.25 1.26 1.40 1.27 1.21 1.21 1.38 1.35 1.25 0.77 0.88 1.02 0.70 0.44 0.48 0.47 0.44 0.27
0.33 0.32 0.33 0.34 0.36 0.38 0.42 0.40 0.37 0.41 0.63 0.87 1.11 1.19 1.23 1.19 1.07 0.92 0.74 0.67 0.60 0.51 0.42 0.35 0.31 0.36 0.40 0.34 0.32 0.55 0.74 1.18 0.93 0.88 0.67 0.46 0.47 0.52 0.46 0.30 0.19 0.16 0.18 0.20 0.25 0.32 0.39 0.45 0.61 0.57 0.59 0.50 0.60 0.72 0.87 0.78 0.78 0.64 0.58 0.57 0.46 0.38 0.36
0.28 0.28 0.31 0.34 0.40 0.42 0.42 0.41 0.39 0.43 0.56 0.82 0.88 1.11 1.05 0.96 0.91 0.90 0.80 0.73 0.65 0.66 0.59 0.46 0.41 0.35 0.38 0.63 0.81 0.73 1.09 1.25 1.69 0.98 0.88 0.66 0.65 0.58 0.40 0.20 0.16 0.20 0.23 0.24 0.24 0.22 0.20 0.26 0.30 0.35 0.45 0.47 0.43 0.37 0.43 0.65 0.55 0.59 0.59 0.54 0.45 0.36 0.32
0.29 0.33 0.37 0.37 0.37 0.40 0.41 0.41 0.39 0.35 0.49 0.65 0.70 0.86 1.15 0.90 0.83 0.73 0.71 0.72 0.72 0.63 0.55 0.50 0.43 0.40 0.35 0.44 0.65 0.78 1.03 1.24 1.53 1.34 0.92 0.90 0.76 0.45 0.29 0.34 0.42 0.38 0.30 0.32 0.27 0.24 0.23 0.23 0.27 0.35 0.40 0.44 0.40 0.39 0.37 0.48 0.36 0.41 0.36 0.46 0.51 0.44 0.37
0.37 0.36 0.29 0.27 0.30 0.35 0.36 0.35 0.35 0.39 0.42 0.44 0.62 0.84 1.10 0.95 0.81 0.67 0.75 0.81 0.65 0.51 0.43 0.38 0.38 0.38 0.39 0.41 0.56 0.84 1.27 1.30 1.45 1.62 1.11 0.93 1.04 1.11 1.04 0.55 0.47 0.41 0.40 0.35 0.33 0.30 0.28 0.28 0.28 0.29 0.32 0.39 0.40 0.36 0.49 0.39 0.32 0.27 0.25 0.24 0.26 0.33 0.36
0.36 0.31 0.28 0.28 0.32 0.33 0.33 0.32 0.32 0.42 0.36 0.36 0.53 0.72 0.92 0.97 0.96 0.95 0.75 0.72 0.63 0.48 0.40 0.35 0.36 0.35 0.37 0.44 0.81 1.12 1.33 1.42 1.68 1.43 1.26 1.40 1.31 1.24 1.01 0.90 0.84 0.68 0.59 0.48 0.39 0.34 0.37 0.32 0.27 0.29 0.27 0.25 0.33 0.31 0.25 0.27 0.27 0.27 0.28 0.29 0.24 0.20 0.21
0.35 0.27 0.28 0.31 0.32 0.32 0.30 0.30 0.35 0.36 0.31 0.33 0.38 0.56 0.80 0.89 0.94 0.93 0.73 0.65 0.55 0.46 0.43 0.40 0.36 0.34 0.44 0.77 0.82 0.99 1.25 1.47 1.30 1.23 1.41 1.60 1.42 1.00 0.91 0.90 0.92 0.88 0.80 0.65 0.51 0.44 0.36 0.30 0.22 0.22 0.20 0.21 0.18 0.27 0.31 0.28 0.28 0.26 0.27 0.27 0.22 0.19 0.18
0.27 0.28 0.29 0.30 0.31 0.34 0.33 0.33 0.34 0.30 0.30 0.31 0.34 0.40 0.58 0.66 0.78 0.67 0.62 0.58 0.48 0.45 0.44 0.42 0.51 0.65 0.76 0.87 0.99 1.03 0.94 0.96 0.87 0.90 1.09 0.97 0.99 1.03 0.95 1.01 0.90 0.74 0.66 0.74 0.70 0.52 0.36 0.23 0.19 0.17 0.17 0.17 0.20 0.23 0.33 0.37 0.34 0.31 0.26 0.27 0.25 0.24 0.18
0.30 0.28 0.27 0.29 0.29 0.33 0.36 0.39 0.33 0.28 0.30 0.34 0.35 0.37 0.46 0.55 0.49 0.50 0.47 0.52 0.47 0.38 0.35 0.38 0.54 0.43 0.44 0.50 0.57 0.65 0.75 0.96 0.71 0.62 0.60 0.73 0.85 0.82 0.92 0.95 0.83 0.65 0.59 0.55 0.43 0.39 0.35 0.27 0.21 0.22 0.25 0.20 0.22 0.29 0.33 0.37 0.40 0.43 0.36 0.32 0.35 0.34 0.31
0.32 0.31 0.33 0.35 0.34 0.37 0.37 0.39 0.31 0.29 0.32 0.40 0.45 0.45 0.47 0.51 0.47 0.50 0.42 0.42 0.49 0.45 0.39 0.37 0.40 0.40 0.43 0.43 0.47 0.57 0.66 0.60 0.50 0.53 0.71 0.60 0.56 0.76 0.86 1.10 0.77 0.58 0.53 0.43 0.35 0.31 0.25 0.23 0.30 0.27 0.34 0.38 0.35 0.34 0.31 0.31 0.33 0.39 0.38 0.34 0.32 0.30 0.30
0.48 0.50 0.55 0.58 0.51 0.51 0.44 0.37 0.31 0.32 0.42 0.53 0.55 0.56 0.52 0.50 0.49 0.56 0.56 0.42 0.41 0.43 0.39 0.42 0.43 0.46 0.46 0.56 0.61 0.61 0.61 0.58 0.55 0.48 0.43 0.44 0.50 0.57 0.64 0.74 0.74 0.69 0.67 0.52 0.50 0.51 0.40 0.40 0.40 0.43 0.40 0.37 0.34 0.28 0.25 0.27 0.34 0.34 0.41 0.44 0.40 0.47 0.41
0.87 0.78 0.82 0.70 0.69 0.75 0.65 0.52 0.51 0.49 0.53 0.57 0.58 0.62 0.61 0.63 0.58 0.55 0.53 0.43 0.42 0.46 0.47 0.43 0.45 0.45 0.45 0.43 0.44 0.47 0.48 0.45 0.42 0.38 0.39 0.46 0.50 0.46 0.48 0.50 0.64 0.70 0.60 0.48 0.51 0.58 0.56 0.56 0.53 0.45 0.37 0.38 0.38 0.31 0.26 0.27 0.35 0.37 0.38 0.45 0.53 0.56 0.44
1.07 1.05 1.03 0.91 0.71 0.72 0.82 0.75 0.63 0.58 0.74 0.75 0.80 0.92 0.77 0.71 0.80 0.74 0.61 0.51 0.47 0.44 0.45 0.41 0.38 0.37 0.36 0.35 0.33 0.34 0.34 0.33 0.33 0.33 0.34 0.38 0.42 0.41 0.42 0.44 0.48 0.53 0.49 0.45 0.53 0.50 0.54 0.50 0.48 0.41 0.39 0.38 0.38 0.35 0.29 0.28 0.36 0.42 0.44 0.50 0.60 0.59 0.50
0.95 1.03 0.88 0.84 0.91 0.79 0.57 0.55 0.50 0.51 0.69 0.76 0.92 0.96 0.90 0.95 0.88 0.81 0.76 0.62 0.56 0.50 0.43 0.39 0.34 0.34 0.32 0.29 0.28 0.29 0.30 0.30 0.30 0.30 0.29 0.32 0.34 0.35 0.37 0.41 0.43 0.47 0.47 0.47 0.49 0.52 0.56 0.50 0.48 0.42 0.35 0.34 0.31 0.31 0.34 0.40 0.44 0.41 0.48 0.51 0.50 0.49 0.44
0.78 0.89 0.99 0.82 0.88 1.00 0.80 0.66 0.63 0.60 0.78 0.92 1.06 1.04 0.95 0.90 0.96 0.92 0.78 0.62 0.62 0.55 0.44 0.37 0.33 0.33 0.31 0.28 0.28 0.26 0.25 0.28 0.32 0.32 0.32 0.30 0.27 0.26 0.26 0.30 0.37 0.42 0.44 0.46 0.47 0.48 0.51 0.55 0.54 0.49 0.41 0.34 0.30 0.29 0.31 0.38 0.49 0.54 0.64 0.59 0.51 0.45 0.39
0.53 0.59 0.70 0.72 0.87 0.95 0.93 0.73 0.69 0.70 0.86 0.90 0.97 0.93 0.75 0.73 0.74 0.64 0.60 0.50 0.38 0.34 0.37 0.36 0.34 0.33 0.32 0.30 0.28 0.28 0.29 0.31 0.34 0.29 0.28 0.27 0.28 0.25 0.23 0.24 0.25 0.31 0.38 0.41 0.44 0.45 0.47 0.58 0.50 0.53 0.50 0.47 0.39 0.36 0.33 0.29 0.32 0.35 0.38 0.47 0.53 0.47 0.42
0.41 0.37 0.41 0.43 0.56 0.68 0.71 0.60 0.58 0.60 0.60 0.64 0.71 0.74 0.76 0.77 0.68 0.61 0.62 0.44 0.37 0.33 0.32 0.31 0.31 0.32 0.33 0.33 0.33 0.33 0.32 0.33 0.34 0.28 0.25 0.22 0.21 0.22 0.22 0.20 0.22 0.26 0.31 0.33 0.36 0.40 0.39 0.42 0.44 0.52 0.52 0.55 0.48 0.41 0.34 0.34 0.31 0.29 0.36 0.42 0.40 0.37 0.37
0.32 0.29 0.33 0.42 0.45 0.56 0.60 0.50 0.48 0.54 0.63 0.72 0.73 0.73 0.83 0.65 0.59 0.64 0.51 0.37 0.30 0.30 0.30 0.30 0.29 0.29 0.28 0.27 0.28 0.30 0.31 0.31 0.32 0.28 0.26 0.24 0.22 0.19 0.19 0.23 0.22 0.21 0.23 0.25 0.28 0.31 0.34 0.35 0.40 0.44 0.45 0.45 0.45 0.45 0.44 0.38 0.35 0.34 0.33 0.33 0.36 0.32 0.29
0.35 0.31 0.29 0.38 0.37 0.42 0.56 0.56 0.49 0.52 0.66 0.81 0.81 0.81 0.69 0.57 0.48 0.40 0.38 0.33 0.32 0.31 0.32 0.31 0.32 0.32 0.31 0.33 0.34 0.35 0.33 0.32 0.32 0.32 0.31 0.29 0.26 0.24 0.22 0.23 0.24 0.22 0.21 0.21 0.22 0.25 0.28 0.31 0.35 0.40 0.44 0.44 0.40 0.37 0.35 0.33 0.30 0.29 0.30 0.30 0.30 0.34 0.31